<?xml version="1.0"?>
<gpx xmlns="http://www.topografix.com/GPX/1/1" xmlns:xsi="http://www.w3.org/2001/XMLSchema-instance" version="1.1" creator="GPX RubyGem 1.0.0 -- http://dougfales.github.io/gpx/" xsi:schemaLocation="http://www.topografix.com/GPX/1/1 http://www.topografix.com/GPX/1/1/gpx.xsd">
  <metadata>
    <name/>
    <time>2026-05-07T20:52:12+00:00</time>
    <bound minlat="90.0" minlon="180.0" maxlat="-90.0" maxlon="-180.0"/>
  </metadata>
  <trk>
    <name/>
    <trkseg>
      <trkpt lat="45.878578" lon="6.887341">
        <time>1970-01-01T00:00:00+00:00</time>
        <ele>3774.0</ele>
      </trkpt>
      <trkpt lat="45.878578" lon="6.887341">
        <time>1970-01-01T00:00:00+00:00</time>
        <ele>3774.0</ele>
      </trkpt>
      <trkpt lat="45.87867819718912" lon="6.887555558378794">
        <time>1970-01-01T00:00:00+00:00</time>
        <ele>3778.0</ele>
      </trkpt>
      <trkpt lat="45.87877839437823" lon="6.887770116757587">
        <time>1970-01-01T00:00:00+00:00</time>
        <ele>3770.0</ele>
      </trkpt>
      <trkpt lat="45.87887859156736" lon="6.887984675136381">
        <time>1970-01-01T00:00:00+00:00</time>
        <ele>3758.0</ele>
      </trkpt>
      <trkpt lat="45.87896" lon="6.888159">
        <time>1970-01-01T00:00:00+00:00</time>
        <ele>3745.0</ele>
      </trkpt>
      <trkpt lat="45.87896" lon="6.888159">
        <time>1970-01-01T00:00:00+00:00</time>
        <ele>3745.0</ele>
      </trkpt>
      <trkpt lat="45.879071787023165" lon="6.88836140226164">
        <time>1970-01-01T00:00:00+00:00</time>
        <ele>3732.0</ele>
      </trkpt>
      <trkpt lat="45.87918357404634" lon="6.88856380452328">
        <time>1970-01-01T00:00:00+00:00</time>
        <ele>3721.0</ele>
      </trkpt>
      <trkpt lat="45.879295361069495" lon="6.88876620678492">
        <time>1970-01-01T00:00:00+00:00</time>
        <ele>3713.0</ele>
      </trkpt>
      <trkpt lat="45.879356" lon="6.888876">
        <time>1970-01-01T00:00:00+00:00</time>
        <ele>3710.0</ele>
      </trkpt>
      <trkpt lat="45.879356" lon="6.888876">
        <time>1970-01-01T00:00:00+00:00</time>
        <ele>3710.0</ele>
      </trkpt>
      <trkpt lat="45.879439887588894" lon="6.889104541805792">
        <time>1970-01-01T00:00:00+00:00</time>
        <ele>3701.0</ele>
      </trkpt>
      <trkpt lat="45.87952377517779" lon="6.889333083611584">
        <time>1970-01-01T00:00:00+00:00</time>
        <ele>3692.0</ele>
      </trkpt>
      <trkpt lat="45.87960766276669" lon="6.889561625417378">
        <time>1970-01-01T00:00:00+00:00</time>
        <ele>3686.0</ele>
      </trkpt>
      <trkpt lat="45.879639" lon="6.889647">
        <time>1970-01-01T00:00:00+00:00</time>
        <ele>3684.0</ele>
      </trkpt>
      <trkpt lat="45.879639" lon="6.889647">
        <time>1970-01-01T00:00:00+00:00</time>
        <ele>3684.0</ele>
      </trkpt>
      <trkpt lat="45.87973126211608" lon="6.889868783932876">
        <time>1970-01-01T00:00:00+00:00</time>
        <ele>3676.0</ele>
      </trkpt>
      <trkpt lat="45.87982352423215" lon="6.89009056786575">
        <time>1970-01-01T00:00:00+00:00</time>
        <ele>3671.0</ele>
      </trkpt>
      <trkpt lat="45.87991578634823" lon="6.890312351798625">
        <time>1970-01-01T00:00:00+00:00</time>
        <ele>3668.0</ele>
      </trkpt>
      <trkpt lat="45.879951" lon="6.890397">
        <time>1970-01-01T00:00:00+00:00</time>
        <ele>3668.0</ele>
      </trkpt>
      <trkpt lat="45.879951" lon="6.890397">
        <time>1970-01-01T00:00:00+00:00</time>
        <ele>3668.0</ele>
      </trkpt>
      <trkpt lat="45.87994498555125" lon="6.890655220333247">
        <time>1970-01-01T00:00:00+00:00</time>
        <ele>3665.0</ele>
      </trkpt>
      <trkpt lat="45.87993897110249" lon="6.890913440666496">
        <time>1970-01-01T00:00:00+00:00</time>
        <ele>3662.0</ele>
      </trkpt>
      <trkpt lat="45.879936" lon="6.891041">
        <time>1970-01-01T00:00:00+00:00</time>
        <ele>3661.0</ele>
      </trkpt>
      <trkpt lat="45.879936" lon="6.891041">
        <time>1970-01-01T00:00:00+00:00</time>
        <ele>3661.0</ele>
      </trkpt>
      <trkpt lat="45.879880940719076" lon="6.891286961541818">
        <time>1970-01-01T00:00:00+00:00</time>
        <ele>3658.0</ele>
      </trkpt>
      <trkpt lat="45.87982588143816" lon="6.891532923083636">
        <time>1970-01-01T00:00:00+00:00</time>
        <ele>3657.0</ele>
      </trkpt>
      <trkpt lat="45.879814" lon="6.891586">
        <time>1970-01-01T00:00:00+00:00</time>
        <ele>3656.0</ele>
      </trkpt>
      <trkpt lat="45.879814" lon="6.891586">
        <time>1970-01-01T00:00:00+00:00</time>
        <ele>3656.0</ele>
      </trkpt>
      <trkpt lat="45.879634959202185" lon="6.891610695282457">
        <time>1970-01-01T00:00:00+00:00</time>
        <ele>3649.0</ele>
      </trkpt>
      <trkpt lat="45.879524" lon="6.891626">
        <time>1970-01-01T00:00:00+00:00</time>
        <ele>3644.0</ele>
      </trkpt>
      <trkpt lat="45.879524" lon="6.891626">
        <time>1970-01-01T00:00:00+00:00</time>
        <ele>3644.0</ele>
      </trkpt>
      <trkpt lat="45.87935823889229" lon="6.891525712932905">
        <time>1970-01-01T00:00:00+00:00</time>
        <ele>3636.0</ele>
      </trkpt>
      <trkpt lat="45.87919247778457" lon="6.891425425865812">
        <time>1970-01-01T00:00:00+00:00</time>
        <ele>3627.0</ele>
      </trkpt>
      <trkpt lat="45.87902671667686" lon="6.891325138798718">
        <time>1970-01-01T00:00:00+00:00</time>
        <ele>3616.0</ele>
      </trkpt>
      <trkpt lat="45.879005" lon="6.891312">
        <time>1970-01-01T00:00:00+00:00</time>
        <ele>3614.0</ele>
      </trkpt>
      <trkpt lat="45.879005" lon="6.891312">
        <time>1970-01-01T00:00:00+00:00</time>
        <ele>3614.0</ele>
      </trkpt>
      <trkpt lat="45.87885975476675" lon="6.8911596115585585">
        <time>1970-01-01T00:00:00+00:00</time>
        <ele>3605.0</ele>
      </trkpt>
      <trkpt lat="45.8787145095335" lon="6.891007223117117">
        <time>1970-01-01T00:00:00+00:00</time>
        <ele>3599.0</ele>
      </trkpt>
      <trkpt lat="45.878578" lon="6.890864">
        <time>1970-01-01T00:00:00+00:00</time>
        <ele>3595.0</ele>
      </trkpt>
      <trkpt lat="45.878578" lon="6.890864">
        <time>1970-01-01T00:00:00+00:00</time>
        <ele>3595.0</ele>
      </trkpt>
      <trkpt lat="45.87842247267532" lon="6.890734226662413">
        <time>1970-01-01T00:00:00+00:00</time>
        <ele>3592.0</ele>
      </trkpt>
      <trkpt lat="45.87826694535063" lon="6.890604453324828">
        <time>1970-01-01T00:00:00+00:00</time>
        <ele>3589.0</ele>
      </trkpt>
      <trkpt lat="45.878113" lon="6.890476">
        <time>1970-01-01T00:00:00+00:00</time>
        <ele>3586.0</ele>
      </trkpt>
      <trkpt lat="45.878113" lon="6.890476">
        <time>1970-01-01T00:00:00+00:00</time>
        <ele>3586.0</ele>
      </trkpt>
      <trkpt lat="45.877953799562555" lon="6.890355768579143">
        <time>1970-01-01T00:00:00+00:00</time>
        <ele>3582.0</ele>
      </trkpt>
      <trkpt lat="45.8777945991251" lon="6.890235537158286">
        <time>1970-01-01T00:00:00+00:00</time>
        <ele>3578.0</ele>
      </trkpt>
      <trkpt lat="45.87763539868766" lon="6.89011530573743">
        <time>1970-01-01T00:00:00+00:00</time>
        <ele>3575.0</ele>
      </trkpt>
      <trkpt lat="45.87747619825021" lon="6.889995074316573">
        <time>1970-01-01T00:00:00+00:00</time>
        <ele>3571.0</ele>
      </trkpt>
      <trkpt lat="45.87731699781276" lon="6.889874842895716">
        <time>1970-01-01T00:00:00+00:00</time>
        <ele>3568.0</ele>
      </trkpt>
      <trkpt lat="45.877251" lon="6.889825">
        <time>1970-01-01T00:00:00+00:00</time>
        <ele>3567.0</ele>
      </trkpt>
      <trkpt lat="45.877251" lon="6.889825">
        <time>1970-01-01T00:00:00+00:00</time>
        <ele>3567.0</ele>
      </trkpt>
      <trkpt lat="45.87708303977301" lon="6.889732574428763">
        <time>1970-01-01T00:00:00+00:00</time>
        <ele>3565.0</ele>
      </trkpt>
      <trkpt lat="45.876915079546016" lon="6.889640148857525">
        <time>1970-01-01T00:00:00+00:00</time>
        <ele>3562.0</ele>
      </trkpt>
      <trkpt lat="45.87674711931902" lon="6.889547723286288">
        <time>1970-01-01T00:00:00+00:00</time>
        <ele>3560.0</ele>
      </trkpt>
      <trkpt lat="45.87657915909203" lon="6.88945529771505">
        <time>1970-01-01T00:00:00+00:00</time>
        <ele>3558.0</ele>
      </trkpt>
      <trkpt lat="45.87641119886504" lon="6.889362872143813">
        <time>1970-01-01T00:00:00+00:00</time>
        <ele>3556.0</ele>
      </trkpt>
      <trkpt lat="45.876366" lon="6.889338">
        <time>1970-01-01T00:00:00+00:00</time>
        <ele>3556.0</ele>
      </trkpt>
      <trkpt lat="45.876366" lon="6.889338">
        <time>1970-01-01T00:00:00+00:00</time>
        <ele>3556.0</ele>
      </trkpt>
      <trkpt lat="45.8762255397069" lon="6.889176629760358">
        <time>1970-01-01T00:00:00+00:00</time>
        <ele>3554.0</ele>
      </trkpt>
      <trkpt lat="45.876085079413805" lon="6.889015259520715">
        <time>1970-01-01T00:00:00+00:00</time>
        <ele>3553.0</ele>
      </trkpt>
      <trkpt lat="45.87594461912071" lon="6.888853889281071">
        <time>1970-01-01T00:00:00+00:00</time>
        <ele>3550.0</ele>
      </trkpt>
      <trkpt lat="45.87580415882761" lon="6.888692519041428">
        <time>1970-01-01T00:00:00+00:00</time>
        <ele>3548.0</ele>
      </trkpt>
      <trkpt lat="45.875748" lon="6.888628">
        <time>1970-01-01T00:00:00+00:00</time>
        <ele>3547.0</ele>
      </trkpt>
      <trkpt lat="45.875748" lon="6.888628">
        <time>1970-01-01T00:00:00+00:00</time>
        <ele>3547.0</ele>
      </trkpt>
      <trkpt lat="45.87558483026146" lon="6.888519305025965">
        <time>1970-01-01T00:00:00+00:00</time>
        <ele>3544.0</ele>
      </trkpt>
      <trkpt lat="45.875421660522925" lon="6.888410610051931">
        <time>1970-01-01T00:00:00+00:00</time>
        <ele>3540.0</ele>
      </trkpt>
      <trkpt lat="45.87525849078439" lon="6.888301915077896">
        <time>1970-01-01T00:00:00+00:00</time>
        <ele>3536.0</ele>
      </trkpt>
      <trkpt lat="45.875107" lon="6.888201">
        <time>1970-01-01T00:00:00+00:00</time>
        <ele>3533.0</ele>
      </trkpt>
      <trkpt lat="45.875107" lon="6.888201">
        <time>1970-01-01T00:00:00+00:00</time>
        <ele>3533.0</ele>
      </trkpt>
      <trkpt lat="45.874968636902366" lon="6.888035938197849">
        <time>1970-01-01T00:00:00+00:00</time>
        <ele>3531.0</ele>
      </trkpt>
      <trkpt lat="45.87483027380474" lon="6.887870876395699">
        <time>1970-01-01T00:00:00+00:00</time>
        <ele>3530.0</ele>
      </trkpt>
      <trkpt lat="45.8746919107071" lon="6.887705814593549">
        <time>1970-01-01T00:00:00+00:00</time>
        <ele>3531.0</ele>
      </trkpt>
      <trkpt lat="45.87455354760947" lon="6.887540752791398">
        <time>1970-01-01T00:00:00+00:00</time>
        <ele>3533.0</ele>
      </trkpt>
      <trkpt lat="45.87441518451184" lon="6.887375690989247">
        <time>1970-01-01T00:00:00+00:00</time>
        <ele>3535.0</ele>
      </trkpt>
      <trkpt lat="45.874283" lon="6.887218">
        <time>1970-01-01T00:00:00+00:00</time>
        <ele>3539.0</ele>
      </trkpt>
      <trkpt lat="45.874283" lon="6.887218">
        <time>1970-01-01T00:00:00+00:00</time>
        <ele>3539.0</ele>
      </trkpt>
      <trkpt lat="45.87414316899039" lon="6.887055512247438">
        <time>1970-01-01T00:00:00+00:00</time>
        <ele>3542.0</ele>
      </trkpt>
      <trkpt lat="45.874003337980795" lon="6.886893024494876">
        <time>1970-01-01T00:00:00+00:00</time>
        <ele>3547.0</ele>
      </trkpt>
      <trkpt lat="45.8738635069712" lon="6.886730536742315">
        <time>1970-01-01T00:00:00+00:00</time>
        <ele>3554.0</ele>
      </trkpt>
      <trkpt lat="45.8737236759616" lon="6.886568048989752">
        <time>1970-01-01T00:00:00+00:00</time>
        <ele>3560.0</ele>
      </trkpt>
      <trkpt lat="45.873672" lon="6.886508">
        <time>1970-01-01T00:00:00+00:00</time>
        <ele>3564.0</ele>
      </trkpt>
      <trkpt lat="45.873672" lon="6.886508">
        <time>1970-01-01T00:00:00+00:00</time>
        <ele>3564.0</ele>
      </trkpt>
      <trkpt lat="45.87358101241817" lon="6.886285157532645">
        <time>1970-01-01T00:00:00+00:00</time>
        <ele>3573.0</ele>
      </trkpt>
      <trkpt lat="45.87349002483634" lon="6.88606231506529">
        <time>1970-01-01T00:00:00+00:00</time>
        <ele>3581.0</ele>
      </trkpt>
      <trkpt lat="45.873399037254515" lon="6.885839472597935">
        <time>1970-01-01T00:00:00+00:00</time>
        <ele>3587.0</ele>
      </trkpt>
      <trkpt lat="45.873318" lon="6.885641">
        <time>1970-01-01T00:00:00+00:00</time>
        <ele>3589.0</ele>
      </trkpt>
      <trkpt lat="45.873318" lon="6.885641">
        <time>1970-01-01T00:00:00+00:00</time>
        <ele>3589.0</ele>
      </trkpt>
      <trkpt lat="45.87332466437057" lon="6.885899156670525">
        <time>1970-01-01T00:00:00+00:00</time>
        <ele>3582.0</ele>
      </trkpt>
      <trkpt lat="45.873331328741145" lon="6.886157313341052">
        <time>1970-01-01T00:00:00+00:00</time>
        <ele>3570.0</ele>
      </trkpt>
      <trkpt lat="45.873337" lon="6.886377">
        <time>1970-01-01T00:00:00+00:00</time>
        <ele>3561.0</ele>
      </trkpt>
      <trkpt lat="45.873337" lon="6.886377">
        <time>1970-01-01T00:00:00+00:00</time>
        <ele>3561.0</ele>
      </trkpt>
      <trkpt lat="45.87326113461205" lon="6.886611229203223">
        <time>1970-01-01T00:00:00+00:00</time>
        <ele>3545.0</ele>
      </trkpt>
      <trkpt lat="45.87318526922411" lon="6.8868454584064445">
        <time>1970-01-01T00:00:00+00:00</time>
        <ele>3534.0</ele>
      </trkpt>
      <trkpt lat="45.873154" lon="6.886942">
        <time>1970-01-01T00:00:00+00:00</time>
        <ele>3530.0</ele>
      </trkpt>
      <trkpt lat="45.873154" lon="6.886942">
        <time>1970-01-01T00:00:00+00:00</time>
        <ele>3530.0</ele>
      </trkpt>
      <trkpt lat="45.8729833817998" lon="6.887023760982011">
        <time>1970-01-01T00:00:00+00:00</time>
        <ele>3528.0</ele>
      </trkpt>
      <trkpt lat="45.87281276359961" lon="6.887105521964021">
        <time>1970-01-01T00:00:00+00:00</time>
        <ele>3527.0</ele>
      </trkpt>
      <trkpt lat="45.87264214539942" lon="6.887187282946032">
        <time>1970-01-01T00:00:00+00:00</time>
        <ele>3526.0</ele>
      </trkpt>
      <trkpt lat="45.872601" lon="6.887207">
        <time>1970-01-01T00:00:00+00:00</time>
        <ele>3525.0</ele>
      </trkpt>
      <trkpt lat="45.872601" lon="6.887207">
        <time>1970-01-01T00:00:00+00:00</time>
        <ele>3525.0</ele>
      </trkpt>
      <trkpt lat="45.87242219037725" lon="6.887179065543069">
        <time>1970-01-01T00:00:00+00:00</time>
        <ele>3525.0</ele>
      </trkpt>
      <trkpt lat="45.8722433807545" lon="6.887151131086138">
        <time>1970-01-01T00:00:00+00:00</time>
        <ele>3524.0</ele>
      </trkpt>
      <trkpt lat="45.87206457113176" lon="6.887123196629208">
        <time>1970-01-01T00:00:00+00:00</time>
        <ele>3523.0</ele>
      </trkpt>
      <trkpt lat="45.871885761509006" lon="6.887095262172276">
        <time>1970-01-01T00:00:00+00:00</time>
        <ele>3522.0</ele>
      </trkpt>
      <trkpt lat="45.87170695188625" lon="6.887067327715345">
        <time>1970-01-01T00:00:00+00:00</time>
        <ele>3521.0</ele>
      </trkpt>
      <trkpt lat="45.8715281422635" lon="6.887039393258414">
        <time>1970-01-01T00:00:00+00:00</time>
        <ele>3520.0</ele>
      </trkpt>
      <trkpt lat="45.871372" lon="6.887015">
        <time>1970-01-01T00:00:00+00:00</time>
        <ele>3519.0</ele>
      </trkpt>
      <trkpt lat="45.871372" lon="6.887015">
        <time>1970-01-01T00:00:00+00:00</time>
        <ele>3519.0</ele>
      </trkpt>
      <trkpt lat="45.87119946141347" lon="6.886942027142732">
        <time>1970-01-01T00:00:00+00:00</time>
        <ele>3519.0</ele>
      </trkpt>
      <trkpt lat="45.87102692282695" lon="6.886869054285465">
        <time>1970-01-01T00:00:00+00:00</time>
        <ele>3519.0</ele>
      </trkpt>
      <trkpt lat="45.87085438424041" lon="6.886796081428196">
        <time>1970-01-01T00:00:00+00:00</time>
        <ele>3519.0</ele>
      </trkpt>
      <trkpt lat="45.87068184565389" lon="6.886723108570928">
        <time>1970-01-01T00:00:00+00:00</time>
        <ele>3519.0</ele>
      </trkpt>
      <trkpt lat="45.87050930706736" lon="6.88665013571366">
        <time>1970-01-01T00:00:00+00:00</time>
        <ele>3520.0</ele>
      </trkpt>
      <trkpt lat="45.870336768480826" lon="6.886577162856392">
        <time>1970-01-01T00:00:00+00:00</time>
        <ele>3522.0</ele>
      </trkpt>
      <trkpt lat="45.8701642298943" lon="6.886504189999124">
        <time>1970-01-01T00:00:00+00:00</time>
        <ele>3523.0</ele>
      </trkpt>
      <trkpt lat="45.870003" lon="6.886436">
        <time>1970-01-01T00:00:00+00:00</time>
        <ele>3523.0</ele>
      </trkpt>
      <trkpt lat="45.870003" lon="6.886436">
        <time>1970-01-01T00:00:00+00:00</time>
        <ele>3523.0</ele>
      </trkpt>
      <trkpt lat="45.86982815959999" lon="6.886375373844347">
        <time>1970-01-01T00:00:00+00:00</time>
        <ele>3524.0</ele>
      </trkpt>
      <trkpt lat="45.869653319199976" lon="6.886314747688692">
        <time>1970-01-01T00:00:00+00:00</time>
        <ele>3523.0</ele>
      </trkpt>
      <trkpt lat="45.86947847879997" lon="6.88625412153304">
        <time>1970-01-01T00:00:00+00:00</time>
        <ele>3523.0</ele>
      </trkpt>
      <trkpt lat="45.869303638399956" lon="6.886193495377386">
        <time>1970-01-01T00:00:00+00:00</time>
        <ele>3523.0</ele>
      </trkpt>
      <trkpt lat="45.86912879799994" lon="6.886132869221733">
        <time>1970-01-01T00:00:00+00:00</time>
        <ele>3522.0</ele>
      </trkpt>
      <trkpt lat="45.868953957599935" lon="6.886072243066079">
        <time>1970-01-01T00:00:00+00:00</time>
        <ele>3522.0</ele>
      </trkpt>
      <trkpt lat="45.86877911719992" lon="6.886011616910425">
        <time>1970-01-01T00:00:00+00:00</time>
        <ele>3522.0</ele>
      </trkpt>
      <trkpt lat="45.86860427679991" lon="6.885950990754772">
        <time>1970-01-01T00:00:00+00:00</time>
        <ele>3523.0</ele>
      </trkpt>
      <trkpt lat="45.868587" lon="6.885945">
        <time>1970-01-01T00:00:00+00:00</time>
        <ele>3523.0</ele>
      </trkpt>
      <trkpt lat="45.868587" lon="6.885945">
        <time>1970-01-01T00:00:00+00:00</time>
        <ele>3523.0</ele>
      </trkpt>
      <trkpt lat="45.86841507175997" lon="6.885869117723347">
        <time>1970-01-01T00:00:00+00:00</time>
        <ele>3523.0</ele>
      </trkpt>
      <trkpt lat="45.86824314351994" lon="6.885793235446693">
        <time>1970-01-01T00:00:00+00:00</time>
        <ele>3524.0</ele>
      </trkpt>
      <trkpt lat="45.86807121527991" lon="6.88571735317004">
        <time>1970-01-01T00:00:00+00:00</time>
        <ele>3524.0</ele>
      </trkpt>
      <trkpt lat="45.86789928703988" lon="6.885641470893386">
        <time>1970-01-01T00:00:00+00:00</time>
        <ele>3524.0</ele>
      </trkpt>
      <trkpt lat="45.867727358799854" lon="6.885565588616734">
        <time>1970-01-01T00:00:00+00:00</time>
        <ele>3525.0</ele>
      </trkpt>
      <trkpt lat="45.86755543055983" lon="6.8854897063400795">
        <time>1970-01-01T00:00:00+00:00</time>
        <ele>3525.0</ele>
      </trkpt>
      <trkpt lat="45.867383502319804" lon="6.885413824063426">
        <time>1970-01-01T00:00:00+00:00</time>
        <ele>3526.0</ele>
      </trkpt>
      <trkpt lat="45.867211574079775" lon="6.885337941786772">
        <time>1970-01-01T00:00:00+00:00</time>
        <ele>3528.0</ele>
      </trkpt>
      <trkpt lat="45.867146" lon="6.885309">
        <time>1970-01-01T00:00:00+00:00</time>
        <ele>3528.0</ele>
      </trkpt>
      <trkpt lat="45.867146" lon="6.885309">
        <time>1970-01-01T00:00:00+00:00</time>
        <ele>3528.0</ele>
      </trkpt>
      <trkpt lat="45.866977685331626" lon="6.885217931667488">
        <time>1970-01-01T00:00:00+00:00</time>
        <ele>3530.0</ele>
      </trkpt>
      <trkpt lat="45.86680937066324" lon="6.8851268633349765">
        <time>1970-01-01T00:00:00+00:00</time>
        <ele>3532.0</ele>
      </trkpt>
      <trkpt lat="45.86664105599486" lon="6.885035795002464">
        <time>1970-01-01T00:00:00+00:00</time>
        <ele>3535.0</ele>
      </trkpt>
      <trkpt lat="45.86647274132649" lon="6.884944726669952">
        <time>1970-01-01T00:00:00+00:00</time>
        <ele>3539.0</ele>
      </trkpt>
      <trkpt lat="45.866304426658104" lon="6.884853658337439">
        <time>1970-01-01T00:00:00+00:00</time>
        <ele>3544.0</ele>
      </trkpt>
      <trkpt lat="45.86613611198973" lon="6.884762590004928">
        <time>1970-01-01T00:00:00+00:00</time>
        <ele>3551.0</ele>
      </trkpt>
      <trkpt lat="45.86596779732135" lon="6.884671521672416">
        <time>1970-01-01T00:00:00+00:00</time>
        <ele>3559.0</ele>
      </trkpt>
      <trkpt lat="45.865799482652974" lon="6.884580453339903">
        <time>1970-01-01T00:00:00+00:00</time>
        <ele>3566.0</ele>
      </trkpt>
      <trkpt lat="45.865631167984596" lon="6.884489385007392">
        <time>1970-01-01T00:00:00+00:00</time>
        <ele>3574.0</ele>
      </trkpt>
      <trkpt lat="45.865462853316224" lon="6.884398316674879">
        <time>1970-01-01T00:00:00+00:00</time>
        <ele>3583.0</ele>
      </trkpt>
      <trkpt lat="45.865429" lon="6.88438">
        <time>1970-01-01T00:00:00+00:00</time>
        <ele>3585.0</ele>
      </trkpt>
      <trkpt lat="45.865429" lon="6.88438">
        <time>1970-01-01T00:00:00+00:00</time>
        <ele>3585.0</ele>
      </trkpt>
      <trkpt lat="45.865259566927435" lon="6.8842933165789635">
        <time>1970-01-01T00:00:00+00:00</time>
        <ele>3594.0</ele>
      </trkpt>
      <trkpt lat="45.86509013385487" lon="6.884206633157925">
        <time>1970-01-01T00:00:00+00:00</time>
        <ele>3604.0</ele>
      </trkpt>
      <trkpt lat="45.864920700782314" lon="6.884119949736888">
        <time>1970-01-01T00:00:00+00:00</time>
        <ele>3613.0</ele>
      </trkpt>
      <trkpt lat="45.86475126770975" lon="6.884033266315852">
        <time>1970-01-01T00:00:00+00:00</time>
        <ele>3621.0</ele>
      </trkpt>
      <trkpt lat="45.86458183463719" lon="6.883946582894815">
        <time>1970-01-01T00:00:00+00:00</time>
        <ele>3629.0</ele>
      </trkpt>
      <trkpt lat="45.864412401564636" lon="6.883859899473778">
        <time>1970-01-01T00:00:00+00:00</time>
        <ele>3637.0</ele>
      </trkpt>
      <trkpt lat="45.86424296849207" lon="6.883773216052741">
        <time>1970-01-01T00:00:00+00:00</time>
        <ele>3645.0</ele>
      </trkpt>
      <trkpt lat="45.864223" lon="6.883763">
        <time>1970-01-01T00:00:00+00:00</time>
        <ele>3645.0</ele>
      </trkpt>
      <trkpt lat="45.864223" lon="6.883763">
        <time>1970-01-01T00:00:00+00:00</time>
        <ele>3645.0</ele>
      </trkpt>
      <trkpt lat="45.86405549367457" lon="6.8836689122567964">
        <time>1970-01-01T00:00:00+00:00</time>
        <ele>3653.0</ele>
      </trkpt>
      <trkpt lat="45.863887987349145" lon="6.883574824513593">
        <time>1970-01-01T00:00:00+00:00</time>
        <ele>3665.0</ele>
      </trkpt>
      <trkpt lat="45.86372048102372" lon="6.883480736770389">
        <time>1970-01-01T00:00:00+00:00</time>
        <ele>3680.0</ele>
      </trkpt>
      <trkpt lat="45.86355297469829" lon="6.883386649027186">
        <time>1970-01-01T00:00:00+00:00</time>
        <ele>3695.0</ele>
      </trkpt>
      <trkpt lat="45.863445" lon="6.883326">
        <time>1970-01-01T00:00:00+00:00</time>
        <ele>3705.0</ele>
      </trkpt>
      <trkpt lat="45.863445" lon="6.883326">
        <time>1970-01-01T00:00:00+00:00</time>
        <ele>3705.0</ele>
      </trkpt>
      <trkpt lat="45.86326517126959" lon="6.883331137963726">
        <time>1970-01-01T00:00:00+00:00</time>
        <ele>3723.0</ele>
      </trkpt>
      <trkpt lat="45.86308534253918" lon="6.883336275927452">
        <time>1970-01-01T00:00:00+00:00</time>
        <ele>3740.0</ele>
      </trkpt>
      <trkpt lat="45.86290551380877" lon="6.883341413891179">
        <time>1970-01-01T00:00:00+00:00</time>
        <ele>3753.0</ele>
      </trkpt>
      <trkpt lat="45.86272568507836" lon="6.883346551854904">
        <time>1970-01-01T00:00:00+00:00</time>
        <ele>3763.0</ele>
      </trkpt>
      <trkpt lat="45.86264" lon="6.883349">
        <time>1970-01-01T00:00:00+00:00</time>
        <ele>3769.0</ele>
      </trkpt>
      <trkpt lat="45.86264" lon="6.883349">
        <time>1970-01-01T00:00:00+00:00</time>
        <ele>3769.0</ele>
      </trkpt>
      <trkpt lat="45.86246105764488" lon="6.8833751178190905">
        <time>1970-01-01T00:00:00+00:00</time>
        <ele>3780.0</ele>
      </trkpt>
      <trkpt lat="45.86228211528975" lon="6.883401235638182">
        <time>1970-01-01T00:00:00+00:00</time>
        <ele>3792.0</ele>
      </trkpt>
      <trkpt lat="45.862103172934624" lon="6.883427353457273">
        <time>1970-01-01T00:00:00+00:00</time>
        <ele>3804.0</ele>
      </trkpt>
      <trkpt lat="45.861924230579504" lon="6.883453471276364">
        <time>1970-01-01T00:00:00+00:00</time>
        <ele>3815.0</ele>
      </trkpt>
      <trkpt lat="45.861745288224384" lon="6.8834795890954545">
        <time>1970-01-01T00:00:00+00:00</time>
        <ele>3828.0</ele>
      </trkpt>
      <trkpt lat="45.861626" lon="6.883497">
        <time>1970-01-01T00:00:00+00:00</time>
        <ele>3837.0</ele>
      </trkpt>
      <trkpt lat="45.861626" lon="6.883497">
        <time>1970-01-01T00:00:00+00:00</time>
        <ele>3837.0</ele>
      </trkpt>
      <trkpt lat="45.86144633623758" lon="6.883509193510918">
        <time>1970-01-01T00:00:00+00:00</time>
        <ele>3851.0</ele>
      </trkpt>
      <trkpt lat="45.86126667247516" lon="6.883521387021835">
        <time>1970-01-01T00:00:00+00:00</time>
        <ele>3869.0</ele>
      </trkpt>
      <trkpt lat="45.86108700871274" lon="6.883533580532752">
        <time>1970-01-01T00:00:00+00:00</time>
        <ele>3885.0</ele>
      </trkpt>
      <trkpt lat="45.86090734495032" lon="6.883545774043669">
        <time>1970-01-01T00:00:00+00:00</time>
        <ele>3897.0</ele>
      </trkpt>
      <trkpt lat="45.86072768118789" lon="6.883557967554586">
        <time>1970-01-01T00:00:00+00:00</time>
        <ele>3910.0</ele>
      </trkpt>
      <trkpt lat="45.860683" lon="6.883561">
        <time>1970-01-01T00:00:00+00:00</time>
        <ele>3913.0</ele>
      </trkpt>
      <trkpt lat="45.860683" lon="6.883561">
        <time>1970-01-01T00:00:00+00:00</time>
        <ele>3913.0</ele>
      </trkpt>
      <trkpt lat="45.86050330912624" lon="6.883572339715334">
        <time>1970-01-01T00:00:00+00:00</time>
        <ele>3928.0</ele>
      </trkpt>
      <trkpt lat="45.86032361825248" lon="6.883583679430669">
        <time>1970-01-01T00:00:00+00:00</time>
        <ele>3941.0</ele>
      </trkpt>
      <trkpt lat="45.860143927378715" lon="6.883595019146004">
        <time>1970-01-01T00:00:00+00:00</time>
        <ele>3957.0</ele>
      </trkpt>
      <trkpt lat="45.860065" lon="6.8836">
        <time>1970-01-01T00:00:00+00:00</time>
        <ele>3964.0</ele>
      </trkpt>
      <trkpt lat="45.860065" lon="6.8836">
        <time>1970-01-01T00:00:00+00:00</time>
        <ele>3964.0</ele>
      </trkpt>
      <trkpt lat="45.85990987271795" lon="6.883469286191847">
        <time>1970-01-01T00:00:00+00:00</time>
        <ele>3975.0</ele>
      </trkpt>
      <trkpt lat="45.85975474543589" lon="6.883338572383693">
        <time>1970-01-01T00:00:00+00:00</time>
        <ele>3985.0</ele>
      </trkpt>
      <trkpt lat="45.859599618153844" lon="6.883207858575538">
        <time>1970-01-01T00:00:00+00:00</time>
        <ele>3998.0</ele>
      </trkpt>
      <trkpt lat="45.859455" lon="6.883086">
        <time>1970-01-01T00:00:00+00:00</time>
        <ele>4010.0</ele>
      </trkpt>
      <trkpt lat="45.859455" lon="6.883086">
        <time>1970-01-01T00:00:00+00:00</time>
        <ele>4010.0</ele>
      </trkpt>
      <trkpt lat="45.859366615658516" lon="6.882861064189152">
        <time>1970-01-01T00:00:00+00:00</time>
        <ele>4018.0</ele>
      </trkpt>
      <trkpt lat="45.85927823131705" lon="6.882636128378305">
        <time>1970-01-01T00:00:00+00:00</time>
        <ele>4028.0</ele>
      </trkpt>
      <trkpt lat="45.85918984697557" lon="6.882411192567458">
        <time>1970-01-01T00:00:00+00:00</time>
        <ele>4038.0</ele>
      </trkpt>
      <trkpt lat="45.8591014626341" lon="6.8821862567566106">
        <time>1970-01-01T00:00:00+00:00</time>
        <ele>4052.0</ele>
      </trkpt>
      <trkpt lat="45.859077" lon="6.882124">
        <time>1970-01-01T00:00:00+00:00</time>
        <ele>4055.0</ele>
      </trkpt>
      <trkpt lat="45.859077" lon="6.882124">
        <time>1970-01-01T00:00:00+00:00</time>
        <ele>4055.0</ele>
      </trkpt>
      <trkpt lat="45.858996904716626" lon="6.881892753775029">
        <time>1970-01-01T00:00:00+00:00</time>
        <ele>4065.0</ele>
      </trkpt>
      <trkpt lat="45.85891680943325" lon="6.8816615075500565">
        <time>1970-01-01T00:00:00+00:00</time>
        <ele>4070.0</ele>
      </trkpt>
      <trkpt lat="45.858836714149874" lon="6.881430261325084">
        <time>1970-01-01T00:00:00+00:00</time>
        <ele>4074.0</ele>
      </trkpt>
      <trkpt lat="45.8587566188665" lon="6.881199015100114">
        <time>1970-01-01T00:00:00+00:00</time>
        <ele>4075.0</ele>
      </trkpt>
      <trkpt lat="45.858696" lon="6.881024">
        <time>1970-01-01T00:00:00+00:00</time>
        <ele>4075.0</ele>
      </trkpt>
      <trkpt lat="45.858696" lon="6.881024">
        <time>1970-01-01T00:00:00+00:00</time>
        <ele>4075.0</ele>
      </trkpt>
      <trkpt lat="45.85854223600051" lon="6.8808900093743866">
        <time>1970-01-01T00:00:00+00:00</time>
        <ele>4080.0</ele>
      </trkpt>
      <trkpt lat="45.858388472001025" lon="6.880756018748773">
        <time>1970-01-01T00:00:00+00:00</time>
        <ele>4083.0</ele>
      </trkpt>
      <trkpt lat="45.85823470800153" lon="6.880622028123159">
        <time>1970-01-01T00:00:00+00:00</time>
        <ele>4084.0</ele>
      </trkpt>
      <trkpt lat="45.858105" lon="6.880509">
        <time>1970-01-01T00:00:00+00:00</time>
        <ele>4085.0</ele>
      </trkpt>
      <trkpt lat="45.858105" lon="6.880509">
        <time>1970-01-01T00:00:00+00:00</time>
        <ele>4085.0</ele>
      </trkpt>
      <trkpt lat="45.857935468712895" lon="6.880595275464172">
        <time>1970-01-01T00:00:00+00:00</time>
        <ele>4088.0</ele>
      </trkpt>
      <trkpt lat="45.857765937425796" lon="6.880681550928344">
        <time>1970-01-01T00:00:00+00:00</time>
        <ele>4088.0</ele>
      </trkpt>
      <trkpt lat="45.8575964061387" lon="6.880767826392518">
        <time>1970-01-01T00:00:00+00:00</time>
        <ele>4087.0</ele>
      </trkpt>
      <trkpt lat="45.8574268748516" lon="6.8808541018566896">
        <time>1970-01-01T00:00:00+00:00</time>
        <ele>4085.0</ele>
      </trkpt>
      <trkpt lat="45.857319" lon="6.880909">
        <time>1970-01-01T00:00:00+00:00</time>
        <ele>4083.0</ele>
      </trkpt>
      <trkpt lat="45.857319" lon="6.880909">
        <time>1970-01-01T00:00:00+00:00</time>
        <ele>4083.0</ele>
      </trkpt>
      <trkpt lat="45.857159427986645" lon="6.8810281660436">
        <time>1970-01-01T00:00:00+00:00</time>
        <ele>4081.0</ele>
      </trkpt>
      <trkpt lat="45.8569998559733" lon="6.881147332087199">
        <time>1970-01-01T00:00:00+00:00</time>
        <ele>4079.0</ele>
      </trkpt>
      <trkpt lat="45.85684028395994" lon="6.881266498130799">
        <time>1970-01-01T00:00:00+00:00</time>
        <ele>4077.0</ele>
      </trkpt>
      <trkpt lat="45.856680711946595" lon="6.881385664174399">
        <time>1970-01-01T00:00:00+00:00</time>
        <ele>4074.0</ele>
      </trkpt>
      <trkpt lat="45.85652113993324" lon="6.881504830217999">
        <time>1970-01-01T00:00:00+00:00</time>
        <ele>4072.0</ele>
      </trkpt>
      <trkpt lat="45.8563615679199" lon="6.881623996261599">
        <time>1970-01-01T00:00:00+00:00</time>
        <ele>4070.0</ele>
      </trkpt>
      <trkpt lat="45.856308" lon="6.881664">
        <time>1970-01-01T00:00:00+00:00</time>
        <ele>4070.0</ele>
      </trkpt>
      <trkpt lat="45.856308" lon="6.881664">
        <time>1970-01-01T00:00:00+00:00</time>
        <ele>4070.0</ele>
      </trkpt>
      <trkpt lat="45.85613656280857" lon="6.881742123277107">
        <time>1970-01-01T00:00:00+00:00</time>
        <ele>4067.0</ele>
      </trkpt>
      <trkpt lat="45.85596512561714" lon="6.881820246554214">
        <time>1970-01-01T00:00:00+00:00</time>
        <ele>4065.0</ele>
      </trkpt>
      <trkpt lat="45.855793688425706" lon="6.881898369831321">
        <time>1970-01-01T00:00:00+00:00</time>
        <ele>4062.0</ele>
      </trkpt>
      <trkpt lat="45.85562225123428" lon="6.881976493108428">
        <time>1970-01-01T00:00:00+00:00</time>
        <ele>4058.0</ele>
      </trkpt>
      <trkpt lat="45.855518" lon="6.882024">
        <time>1970-01-01T00:00:00+00:00</time>
        <ele>4056.0</ele>
      </trkpt>
      <trkpt lat="45.855518" lon="6.882024">
        <time>1970-01-01T00:00:00+00:00</time>
        <ele>4056.0</ele>
      </trkpt>
      <trkpt lat="45.85533944879488" lon="6.882055148589643">
        <time>1970-01-01T00:00:00+00:00</time>
        <ele>4052.0</ele>
      </trkpt>
      <trkpt lat="45.855160897589776" lon="6.882086297179287">
        <time>1970-01-01T00:00:00+00:00</time>
        <ele>4048.0</ele>
      </trkpt>
      <trkpt lat="45.85498234638466" lon="6.882117445768929">
        <time>1970-01-01T00:00:00+00:00</time>
        <ele>4045.0</ele>
      </trkpt>
      <trkpt lat="45.85480379517955" lon="6.882148594358573">
        <time>1970-01-01T00:00:00+00:00</time>
        <ele>4042.0</ele>
      </trkpt>
      <trkpt lat="45.85462524397444" lon="6.882179742948216">
        <time>1970-01-01T00:00:00+00:00</time>
        <ele>4039.0</ele>
      </trkpt>
      <trkpt lat="45.854469" lon="6.882207">
        <time>1970-01-01T00:00:00+00:00</time>
        <ele>4037.0</ele>
      </trkpt>
      <trkpt lat="45.854469" lon="6.882207">
        <time>1970-01-01T00:00:00+00:00</time>
        <ele>4037.0</ele>
      </trkpt>
      <trkpt lat="45.85429123389299" lon="6.8821676696819765">
        <time>1970-01-01T00:00:00+00:00</time>
        <ele>4035.0</ele>
      </trkpt>
      <trkpt lat="45.85411346778597" lon="6.882128339363952">
        <time>1970-01-01T00:00:00+00:00</time>
        <ele>4033.0</ele>
      </trkpt>
      <trkpt lat="45.85393570167895" lon="6.882089009045929">
        <time>1970-01-01T00:00:00+00:00</time>
        <ele>4030.0</ele>
      </trkpt>
      <trkpt lat="45.853757935571934" lon="6.882049678727904">
        <time>1970-01-01T00:00:00+00:00</time>
        <ele>4029.0</ele>
      </trkpt>
      <trkpt lat="45.85358016946493" lon="6.882010348409882">
        <time>1970-01-01T00:00:00+00:00</time>
        <ele>4028.0</ele>
      </trkpt>
      <trkpt lat="45.853443" lon="6.88198">
        <time>1970-01-01T00:00:00+00:00</time>
        <ele>4028.0</ele>
      </trkpt>
      <trkpt lat="45.853443" lon="6.88198">
        <time>1970-01-01T00:00:00+00:00</time>
        <ele>4028.0</ele>
      </trkpt>
      <trkpt lat="45.85326913656053" lon="6.881913851442054">
        <time>1970-01-01T00:00:00+00:00</time>
        <ele>4028.0</ele>
      </trkpt>
      <trkpt lat="45.85309527312107" lon="6.881847702884107">
        <time>1970-01-01T00:00:00+00:00</time>
        <ele>4028.0</ele>
      </trkpt>
      <trkpt lat="45.85292140968159" lon="6.881781554326159">
        <time>1970-01-01T00:00:00+00:00</time>
        <ele>4028.0</ele>
      </trkpt>
      <trkpt lat="45.85274754624213" lon="6.881715405768213">
        <time>1970-01-01T00:00:00+00:00</time>
        <ele>4030.0</ele>
      </trkpt>
      <trkpt lat="45.852665" lon="6.881684">
        <time>1970-01-01T00:00:00+00:00</time>
        <ele>4030.0</ele>
      </trkpt>
      <trkpt lat="45.852665" lon="6.881684">
        <time>1970-01-01T00:00:00+00:00</time>
        <ele>4030.0</ele>
      </trkpt>
      <trkpt lat="45.85253166115517" lon="6.881510687455357">
        <time>1970-01-01T00:00:00+00:00</time>
        <ele>4032.0</ele>
      </trkpt>
      <trkpt lat="45.85239832231034" lon="6.881337374910716">
        <time>1970-01-01T00:00:00+00:00</time>
        <ele>4033.0</ele>
      </trkpt>
      <trkpt lat="45.85226498346552" lon="6.881164062366074">
        <time>1970-01-01T00:00:00+00:00</time>
        <ele>4034.0</ele>
      </trkpt>
      <trkpt lat="45.852131644620684" lon="6.880990749821432">
        <time>1970-01-01T00:00:00+00:00</time>
        <ele>4036.0</ele>
      </trkpt>
      <trkpt lat="45.85199830577586" lon="6.880817437276789">
        <time>1970-01-01T00:00:00+00:00</time>
        <ele>4039.0</ele>
      </trkpt>
      <trkpt lat="45.851864966931025" lon="6.8806441247321475">
        <time>1970-01-01T00:00:00+00:00</time>
        <ele>4043.0</ele>
      </trkpt>
      <trkpt lat="45.8517316280862" lon="6.880470812187506">
        <time>1970-01-01T00:00:00+00:00</time>
        <ele>4047.0</ele>
      </trkpt>
      <trkpt lat="45.851711" lon="6.880444">
        <time>1970-01-01T00:00:00+00:00</time>
        <ele>4048.0</ele>
      </trkpt>
      <trkpt lat="45.851711" lon="6.880444">
        <time>1970-01-01T00:00:00+00:00</time>
        <ele>4048.0</ele>
      </trkpt>
      <trkpt lat="45.8516234047107" lon="6.880218460532424">
        <time>1970-01-01T00:00:00+00:00</time>
        <ele>4051.0</ele>
      </trkpt>
      <trkpt lat="45.85153580942141" lon="6.879992921064849">
        <time>1970-01-01T00:00:00+00:00</time>
        <ele>4055.0</ele>
      </trkpt>
      <trkpt lat="45.851448214132105" lon="6.879767381597273">
        <time>1970-01-01T00:00:00+00:00</time>
        <ele>4060.0</ele>
      </trkpt>
      <trkpt lat="45.851360618842804" lon="6.879541842129697">
        <time>1970-01-01T00:00:00+00:00</time>
        <ele>4066.0</ele>
      </trkpt>
      <trkpt lat="45.8512730235535" lon="6.879316302662122">
        <time>1970-01-01T00:00:00+00:00</time>
        <ele>4072.0</ele>
      </trkpt>
      <trkpt lat="45.8511854282642" lon="6.879090763194546">
        <time>1970-01-01T00:00:00+00:00</time>
        <ele>4078.0</ele>
      </trkpt>
      <trkpt lat="45.851116" lon="6.878912">
        <time>1970-01-01T00:00:00+00:00</time>
        <ele>4083.0</ele>
      </trkpt>
      <trkpt lat="45.851116" lon="6.878912">
        <time>1970-01-01T00:00:00+00:00</time>
        <ele>4083.0</ele>
      </trkpt>
      <trkpt lat="45.85110993582896" lon="6.878653916014583">
        <time>1970-01-01T00:00:00+00:00</time>
        <ele>4085.0</ele>
      </trkpt>
      <trkpt lat="45.851103871657905" lon="6.878395832029165">
        <time>1970-01-01T00:00:00+00:00</time>
        <ele>4086.0</ele>
      </trkpt>
      <trkpt lat="45.85109780748686" lon="6.8781377480437484">
        <time>1970-01-01T00:00:00+00:00</time>
        <ele>4087.0</ele>
      </trkpt>
      <trkpt lat="45.851091743315806" lon="6.87787966405833">
        <time>1970-01-01T00:00:00+00:00</time>
        <ele>4088.0</ele>
      </trkpt>
      <trkpt lat="45.85108567914477" lon="6.877621580072914">
        <time>1970-01-01T00:00:00+00:00</time>
        <ele>4090.0</ele>
      </trkpt>
      <trkpt lat="45.851082" lon="6.877465">
        <time>1970-01-01T00:00:00+00:00</time>
        <ele>4090.0</ele>
      </trkpt>
      <trkpt lat="45.851082" lon="6.877465">
        <time>1970-01-01T00:00:00+00:00</time>
        <ele>4090.0</ele>
      </trkpt>
      <trkpt lat="45.85103699412333" lon="6.877214984595415">
        <time>1970-01-01T00:00:00+00:00</time>
        <ele>4095.0</ele>
      </trkpt>
      <trkpt lat="45.85099198824664" lon="6.876964969190832">
        <time>1970-01-01T00:00:00+00:00</time>
        <ele>4099.0</ele>
      </trkpt>
      <trkpt lat="45.85094698236996" lon="6.876714953786246">
        <time>1970-01-01T00:00:00+00:00</time>
        <ele>4103.0</ele>
      </trkpt>
      <trkpt lat="45.85090197649328" lon="6.8764649383816625">
        <time>1970-01-01T00:00:00+00:00</time>
        <ele>4104.0</ele>
      </trkpt>
      <trkpt lat="45.850856970616604" lon="6.876214922977077">
        <time>1970-01-01T00:00:00+00:00</time>
        <ele>4106.0</ele>
      </trkpt>
      <trkpt lat="45.850811964739925" lon="6.875964907572493">
        <time>1970-01-01T00:00:00+00:00</time>
        <ele>4109.0</ele>
      </trkpt>
      <trkpt lat="45.850792" lon="6.875854">
        <time>1970-01-01T00:00:00+00:00</time>
        <ele>4110.0</ele>
      </trkpt>
      <trkpt lat="45.850792" lon="6.875854">
        <time>1970-01-01T00:00:00+00:00</time>
        <ele>4110.0</ele>
      </trkpt>
      <trkpt lat="45.85066504722626" lon="6.875671074437845">
        <time>1970-01-01T00:00:00+00:00</time>
        <ele>4120.0</ele>
      </trkpt>
      <trkpt lat="45.85053809445253" lon="6.8754881488756885">
        <time>1970-01-01T00:00:00+00:00</time>
        <ele>4131.0</ele>
      </trkpt>
      <trkpt lat="45.850479" lon="6.875403">
        <time>1970-01-01T00:00:00+00:00</time>
        <ele>4136.0</ele>
      </trkpt>
      <trkpt lat="45.850479" lon="6.875403">
        <time>1970-01-01T00:00:00+00:00</time>
        <ele>4136.0</ele>
      </trkpt>
      <trkpt lat="45.85030282887581" lon="6.875350939975119">
        <time>1970-01-01T00:00:00+00:00</time>
        <ele>4154.0</ele>
      </trkpt>
      <trkpt lat="45.850126657751616" lon="6.87529887995024">
        <time>1970-01-01T00:00:00+00:00</time>
        <ele>4170.0</ele>
      </trkpt>
      <trkpt lat="45.850056" lon="6.875278">
        <time>1970-01-01T00:00:00+00:00</time>
        <ele>4177.0</ele>
      </trkpt>
      <trkpt lat="45.850056" lon="6.875278">
        <time>1970-01-01T00:00:00+00:00</time>
        <ele>4177.0</ele>
      </trkpt>
      <trkpt lat="45.84987767734347" lon="6.875244263281197">
        <time>1970-01-01T00:00:00+00:00</time>
        <ele>4197.0</ele>
      </trkpt>
      <trkpt lat="45.84969935468695" lon="6.875210526562395">
        <time>1970-01-01T00:00:00+00:00</time>
        <ele>4217.0</ele>
      </trkpt>
      <trkpt lat="45.849575" lon="6.875187">
        <time>1970-01-01T00:00:00+00:00</time>
        <ele>4229.0</ele>
      </trkpt>
      <trkpt lat="45.849575" lon="6.875187">
        <time>1970-01-01T00:00:00+00:00</time>
        <ele>4229.0</ele>
      </trkpt>
      <trkpt lat="45.84939838854238" lon="6.8751381125391635">
        <time>1970-01-01T00:00:00+00:00</time>
        <ele>4245.0</ele>
      </trkpt>
      <trkpt lat="45.84922177708476" lon="6.875089225078326">
        <time>1970-01-01T00:00:00+00:00</time>
        <ele>4260.0</ele>
      </trkpt>
      <trkpt lat="45.849174" lon="6.875076">
        <time>1970-01-01T00:00:00+00:00</time>
        <ele>4264.0</ele>
      </trkpt>
      <trkpt lat="45.849174" lon="6.875076">
        <time>1970-01-01T00:00:00+00:00</time>
        <ele>4264.0</ele>
      </trkpt>
      <trkpt lat="45.8490071072322" lon="6.874979715710885">
        <time>1970-01-01T00:00:00+00:00</time>
        <ele>4278.0</ele>
      </trkpt>
      <trkpt lat="45.848862" lon="6.874896">
        <time>1970-01-01T00:00:00+00:00</time>
        <ele>4292.0</ele>
      </trkpt>
      <trkpt lat="45.848862" lon="6.874896">
        <time>1970-01-01T00:00:00+00:00</time>
        <ele>4292.0</ele>
      </trkpt>
      <trkpt lat="45.84875556261626" lon="6.874687846245524">
        <time>1970-01-01T00:00:00+00:00</time>
        <ele>4306.0</ele>
      </trkpt>
      <trkpt lat="45.848649125232534" lon="6.8744796924910485">
        <time>1970-01-01T00:00:00+00:00</time>
        <ele>4323.0</ele>
      </trkpt>
      <trkpt lat="45.848614" lon="6.874411">
        <time>1970-01-01T00:00:00+00:00</time>
        <ele>4328.0</ele>
      </trkpt>
      <trkpt lat="45.848614" lon="6.874411">
        <time>1970-01-01T00:00:00+00:00</time>
        <ele>4328.0</ele>
      </trkpt>
      <trkpt lat="45.848617052828615" lon="6.874152817922361">
        <time>1970-01-01T00:00:00+00:00</time>
        <ele>4335.0</ele>
      </trkpt>
      <trkpt lat="45.84862010565725" lon="6.873894635844724">
        <time>1970-01-01T00:00:00+00:00</time>
        <ele>4340.0</ele>
      </trkpt>
      <trkpt lat="45.848621" lon="6.873819">
        <time>1970-01-01T00:00:00+00:00</time>
        <ele>4340.0</ele>
      </trkpt>
      <trkpt lat="45.848621" lon="6.873819">
        <time>1970-01-01T00:00:00+00:00</time>
        <ele>4340.0</ele>
      </trkpt>
      <trkpt lat="45.8484414469226" lon="6.873803815807408">
        <time>1970-01-01T00:00:00+00:00</time>
        <ele>4350.0</ele>
      </trkpt>
      <trkpt lat="45.8482618938452" lon="6.873788631614815">
        <time>1970-01-01T00:00:00+00:00</time>
        <ele>4357.0</ele>
      </trkpt>
      <trkpt lat="45.848148" lon="6.873779">
        <time>1970-01-01T00:00:00+00:00</time>
        <ele>4359.0</ele>
      </trkpt>
      <trkpt lat="45.848148" lon="6.873779">
        <time>1970-01-01T00:00:00+00:00</time>
        <ele>4359.0</ele>
      </trkpt>
      <trkpt lat="45.84796817475383" lon="6.873784382093635">
        <time>1970-01-01T00:00:00+00:00</time>
        <ele>4358.0</ele>
      </trkpt>
      <trkpt lat="45.84778834950767" lon="6.87378976418727">
        <time>1970-01-01T00:00:00+00:00</time>
        <ele>4355.0</ele>
      </trkpt>
      <trkpt lat="45.847608524261496" lon="6.873795146280905">
        <time>1970-01-01T00:00:00+00:00</time>
        <ele>4351.0</ele>
      </trkpt>
      <trkpt lat="45.84758" lon="6.873796">
        <time>1970-01-01T00:00:00+00:00</time>
        <ele>4350.0</ele>
      </trkpt>
      <trkpt lat="45.84758" lon="6.873796">
        <time>1970-01-01T00:00:00+00:00</time>
        <ele>4350.0</ele>
      </trkpt>
      <trkpt lat="45.84740042332778" lon="6.873781402509772">
        <time>1970-01-01T00:00:00+00:00</time>
        <ele>4345.0</ele>
      </trkpt>
      <trkpt lat="45.847220846655546" lon="6.873766805019546">
        <time>1970-01-01T00:00:00+00:00</time>
        <ele>4340.0</ele>
      </trkpt>
      <trkpt lat="45.84704126998332" lon="6.87375220752932">
        <time>1970-01-01T00:00:00+00:00</time>
        <ele>4335.0</ele>
      </trkpt>
      <trkpt lat="45.846928" lon="6.873743">
        <time>1970-01-01T00:00:00+00:00</time>
        <ele>4333.0</ele>
      </trkpt>
      <trkpt lat="45.846928" lon="6.873743">
        <time>1970-01-01T00:00:00+00:00</time>
        <ele>4333.0</ele>
      </trkpt>
      <trkpt lat="45.84675438338792" lon="6.8736755361632715">
        <time>1970-01-01T00:00:00+00:00</time>
        <ele>4328.0</ele>
      </trkpt>
      <trkpt lat="45.84658076677584" lon="6.873608072326544">
        <time>1970-01-01T00:00:00+00:00</time>
        <ele>4324.0</ele>
      </trkpt>
      <trkpt lat="45.846407150163756" lon="6.873540608489815">
        <time>1970-01-01T00:00:00+00:00</time>
        <ele>4322.0</ele>
      </trkpt>
      <trkpt lat="45.84623353355167" lon="6.873473144653087">
        <time>1970-01-01T00:00:00+00:00</time>
        <ele>4321.0</ele>
      </trkpt>
      <trkpt lat="45.84621" lon="6.873464">
        <time>1970-01-01T00:00:00+00:00</time>
        <ele>4321.0</ele>
      </trkpt>
      <trkpt lat="45.84621" lon="6.873464">
        <time>1970-01-01T00:00:00+00:00</time>
        <ele>4321.0</ele>
      </trkpt>
      <trkpt lat="45.846047007749924" lon="6.873354814830071">
        <time>1970-01-01T00:00:00+00:00</time>
        <ele>4320.0</ele>
      </trkpt>
      <trkpt lat="45.84588401549985" lon="6.8732456296601425">
        <time>1970-01-01T00:00:00+00:00</time>
        <ele>4323.0</ele>
      </trkpt>
      <trkpt lat="45.845795" lon="6.873186">
        <time>1970-01-01T00:00:00+00:00</time>
        <ele>4323.0</ele>
      </trkpt>
      <trkpt lat="45.845795" lon="6.873186">
        <time>1970-01-01T00:00:00+00:00</time>
        <ele>4323.0</ele>
      </trkpt>
      <trkpt lat="45.845709460414575" lon="6.872958863333851">
        <time>1970-01-01T00:00:00+00:00</time>
        <ele>4320.0</ele>
      </trkpt>
      <trkpt lat="45.845623920829155" lon="6.872731726667702">
        <time>1970-01-01T00:00:00+00:00</time>
        <ele>4310.0</ele>
      </trkpt>
      <trkpt lat="45.845589" lon="6.872639">
        <time>1970-01-01T00:00:00+00:00</time>
        <ele>4305.0</ele>
      </trkpt>
      <trkpt lat="45.845589" lon="6.872639">
        <time>1970-01-01T00:00:00+00:00</time>
        <ele>4305.0</ele>
      </trkpt>
      <trkpt lat="45.84540969863119" lon="6.872659412771219">
        <time>1970-01-01T00:00:00+00:00</time>
        <ele>4304.0</ele>
      </trkpt>
      <trkpt lat="45.845264" lon="6.872676">
        <time>1970-01-01T00:00:00+00:00</time>
        <ele>4301.0</ele>
      </trkpt>
      <trkpt lat="45.845264" lon="6.872676">
        <time>1970-01-01T00:00:00+00:00</time>
        <ele>4301.0</ele>
      </trkpt>
      <trkpt lat="45.845104717602524" lon="6.8727959366604425">
        <time>1970-01-01T00:00:00+00:00</time>
        <ele>4305.0</ele>
      </trkpt>
      <trkpt lat="45.84494543520506" lon="6.872915873320885">
        <time>1970-01-01T00:00:00+00:00</time>
        <ele>4312.0</ele>
      </trkpt>
      <trkpt lat="45.8447861528076" lon="6.873035809981328">
        <time>1970-01-01T00:00:00+00:00</time>
        <ele>4318.0</ele>
      </trkpt>
      <trkpt lat="45.844677" lon="6.873118">
        <time>1970-01-01T00:00:00+00:00</time>
        <ele>4321.0</ele>
      </trkpt>
      <trkpt lat="45.844677" lon="6.873118">
        <time>1970-01-01T00:00:00+00:00</time>
        <ele>4321.0</ele>
      </trkpt>
      <trkpt lat="45.844511992213306" lon="6.873220753797046">
        <time>1970-01-01T00:00:00+00:00</time>
        <ele>4323.0</ele>
      </trkpt>
      <trkpt lat="45.84434698442661" lon="6.873323507594091">
        <time>1970-01-01T00:00:00+00:00</time>
        <ele>4321.0</ele>
      </trkpt>
      <trkpt lat="45.8441819766399" lon="6.8734262613911365">
        <time>1970-01-01T00:00:00+00:00</time>
        <ele>4321.0</ele>
      </trkpt>
      <trkpt lat="45.84401696885321" lon="6.873529015188183">
        <time>1970-01-01T00:00:00+00:00</time>
        <ele>4321.0</ele>
      </trkpt>
      <trkpt lat="45.843964" lon="6.873562">
        <time>1970-01-01T00:00:00+00:00</time>
        <ele>4321.0</ele>
      </trkpt>
      <trkpt lat="45.843964" lon="6.873562">
        <time>1970-01-01T00:00:00+00:00</time>
        <ele>4321.0</ele>
      </trkpt>
      <trkpt lat="45.843784188150465" lon="6.873555763750883">
        <time>1970-01-01T00:00:00+00:00</time>
        <ele>4313.0</ele>
      </trkpt>
      <trkpt lat="45.843604376300924" lon="6.8735495275017655">
        <time>1970-01-01T00:00:00+00:00</time>
        <ele>4307.0</ele>
      </trkpt>
      <trkpt lat="45.843445" lon="6.873544">
        <time>1970-01-01T00:00:00+00:00</time>
        <ele>4303.0</ele>
      </trkpt>
      <trkpt lat="45.843445" lon="6.873544">
        <time>1970-01-01T00:00:00+00:00</time>
        <ele>4303.0</ele>
      </trkpt>
      <trkpt lat="45.843265297010426" lon="6.873554933257108">
        <time>1970-01-01T00:00:00+00:00</time>
        <ele>4300.0</ele>
      </trkpt>
      <trkpt lat="45.84308559402086" lon="6.873565866514218">
        <time>1970-01-01T00:00:00+00:00</time>
        <ele>4297.0</ele>
      </trkpt>
      <trkpt lat="45.84290589103129" lon="6.873576799771326">
        <time>1970-01-01T00:00:00+00:00</time>
        <ele>4296.0</ele>
      </trkpt>
      <trkpt lat="45.842726188041716" lon="6.873587733028435">
        <time>1970-01-01T00:00:00+00:00</time>
        <ele>4295.0</ele>
      </trkpt>
      <trkpt lat="45.84254648505215" lon="6.8735986662855435">
        <time>1970-01-01T00:00:00+00:00</time>
        <ele>4295.0</ele>
      </trkpt>
      <trkpt lat="45.842541" lon="6.873599">
        <time>1970-01-01T00:00:00+00:00</time>
        <ele>4295.0</ele>
      </trkpt>
      <trkpt lat="45.842541" lon="6.873599">
        <time>1970-01-01T00:00:00+00:00</time>
        <ele>4295.0</ele>
      </trkpt>
      <trkpt lat="45.84236143233598" lon="6.873584177197546">
        <time>1970-01-01T00:00:00+00:00</time>
        <ele>4296.0</ele>
      </trkpt>
      <trkpt lat="45.84218186467196" lon="6.873569354395091">
        <time>1970-01-01T00:00:00+00:00</time>
        <ele>4298.0</ele>
      </trkpt>
      <trkpt lat="45.842117" lon="6.873564">
        <time>1970-01-01T00:00:00+00:00</time>
        <ele>4299.0</ele>
      </trkpt>
      <trkpt lat="45.842117" lon="6.873564">
        <time>1970-01-01T00:00:00+00:00</time>
        <ele>4299.0</ele>
      </trkpt>
      <trkpt lat="45.84195844570491" lon="6.873442098515982">
        <time>1970-01-01T00:00:00+00:00</time>
        <ele>4301.0</ele>
      </trkpt>
      <trkpt lat="45.84179989140982" lon="6.873320197031965">
        <time>1970-01-01T00:00:00+00:00</time>
        <ele>4300.0</ele>
      </trkpt>
      <trkpt lat="45.84164133711473" lon="6.873198295547947">
        <time>1970-01-01T00:00:00+00:00</time>
        <ele>4300.0</ele>
      </trkpt>
      <trkpt lat="45.84148278281964" lon="6.873076394063929">
        <time>1970-01-01T00:00:00+00:00</time>
        <ele>4303.0</ele>
      </trkpt>
      <trkpt lat="45.841347" lon="6.872972">
        <time>1970-01-01T00:00:00+00:00</time>
        <ele>4305.0</ele>
      </trkpt>
      <trkpt lat="45.841347" lon="6.872972">
        <time>1970-01-01T00:00:00+00:00</time>
        <ele>4305.0</ele>
      </trkpt>
      <trkpt lat="45.84119593937226" lon="6.872831856358803">
        <time>1970-01-01T00:00:00+00:00</time>
        <ele>4309.0</ele>
      </trkpt>
      <trkpt lat="45.84104487874452" lon="6.872691712717605">
        <time>1970-01-01T00:00:00+00:00</time>
        <ele>4314.0</ele>
      </trkpt>
      <trkpt lat="45.840893818116776" lon="6.872551569076407">
        <time>1970-01-01T00:00:00+00:00</time>
        <ele>4320.0</ele>
      </trkpt>
      <trkpt lat="45.840752" lon="6.87242">
        <time>1970-01-01T00:00:00+00:00</time>
        <ele>4325.0</ele>
      </trkpt>
      <trkpt lat="45.840752" lon="6.87242">
        <time>1970-01-01T00:00:00+00:00</time>
        <ele>4325.0</ele>
      </trkpt>
      <trkpt lat="45.84062948272142" lon="6.872230977953596">
        <time>1970-01-01T00:00:00+00:00</time>
        <ele>4330.0</ele>
      </trkpt>
      <trkpt lat="45.840506965442835" lon="6.872041955907192">
        <time>1970-01-01T00:00:00+00:00</time>
        <ele>4335.0</ele>
      </trkpt>
      <trkpt lat="45.84038444816425" lon="6.871852933860788">
        <time>1970-01-01T00:00:00+00:00</time>
        <ele>4339.0</ele>
      </trkpt>
      <trkpt lat="45.840261930885674" lon="6.871663911814384">
        <time>1970-01-01T00:00:00+00:00</time>
        <ele>4342.0</ele>
      </trkpt>
      <trkpt lat="45.84013941360708" lon="6.87147488976798">
        <time>1970-01-01T00:00:00+00:00</time>
        <ele>4347.0</ele>
      </trkpt>
      <trkpt lat="45.8400168963285" lon="6.871285867721577">
        <time>1970-01-01T00:00:00+00:00</time>
        <ele>4356.0</ele>
      </trkpt>
      <trkpt lat="45.839993" lon="6.871249">
        <time>1970-01-01T00:00:00+00:00</time>
        <ele>4359.0</ele>
      </trkpt>
      <trkpt lat="45.839993" lon="6.871249">
        <time>1970-01-01T00:00:00+00:00</time>
        <ele>4359.0</ele>
      </trkpt>
      <trkpt lat="45.83991877031107" lon="6.871013833578086">
        <time>1970-01-01T00:00:00+00:00</time>
        <ele>4372.0</ele>
      </trkpt>
      <trkpt lat="45.83984454062214" lon="6.8707786671561735">
        <time>1970-01-01T00:00:00+00:00</time>
        <ele>4387.0</ele>
      </trkpt>
      <trkpt lat="45.839770310933204" lon="6.870543500734261">
        <time>1970-01-01T00:00:00+00:00</time>
        <ele>4402.0</ele>
      </trkpt>
      <trkpt lat="45.83969608124428" lon="6.870308334312349">
        <time>1970-01-01T00:00:00+00:00</time>
        <ele>4422.0</ele>
      </trkpt>
      <trkpt lat="45.839642" lon="6.870137">
        <time>1970-01-01T00:00:00+00:00</time>
        <ele>4438.0</ele>
      </trkpt>
      <trkpt lat="45.839642" lon="6.870137">
        <time>1970-01-01T00:00:00+00:00</time>
        <ele>4438.0</ele>
      </trkpt>
      <trkpt lat="45.83951064234084" lon="6.869960636791875">
        <time>1970-01-01T00:00:00+00:00</time>
        <ele>4453.0</ele>
      </trkpt>
      <trkpt lat="45.83937928468167" lon="6.869784273583748">
        <time>1970-01-01T00:00:00+00:00</time>
        <ele>4462.0</ele>
      </trkpt>
      <trkpt lat="45.839283" lon="6.869655">
        <time>1970-01-01T00:00:00+00:00</time>
        <ele>4467.0</ele>
      </trkpt>
      <trkpt lat="45.839283" lon="6.869655">
        <time>1970-01-01T00:00:00+00:00</time>
        <ele>4467.0</ele>
      </trkpt>
      <trkpt lat="45.839126358219055" lon="6.869528112478917">
        <time>1970-01-01T00:00:00+00:00</time>
        <ele>4469.0</ele>
      </trkpt>
      <trkpt lat="45.838969716438115" lon="6.869401224957833">
        <time>1970-01-01T00:00:00+00:00</time>
        <ele>4471.0</ele>
      </trkpt>
      <trkpt lat="45.83881307465717" lon="6.8692743374367495">
        <time>1970-01-01T00:00:00+00:00</time>
        <ele>4470.0</ele>
      </trkpt>
      <trkpt lat="45.83865643287622" lon="6.869147449915666">
        <time>1970-01-01T00:00:00+00:00</time>
        <ele>4470.0</ele>
      </trkpt>
      <trkpt lat="45.83849979109528" lon="6.869020562394583">
        <time>1970-01-01T00:00:00+00:00</time>
        <ele>4469.0</ele>
      </trkpt>
      <trkpt lat="45.838467" lon="6.868994">
        <time>1970-01-01T00:00:00+00:00</time>
        <ele>4469.0</ele>
      </trkpt>
      <trkpt lat="45.838467" lon="6.868994">
        <time>1970-01-01T00:00:00+00:00</time>
        <ele>4469.0</ele>
      </trkpt>
      <trkpt lat="45.838295357574935" lon="6.868916836190485">
        <time>1970-01-01T00:00:00+00:00</time>
        <ele>4472.0</ele>
      </trkpt>
      <trkpt lat="45.83812371514988" lon="6.868839672380972">
        <time>1970-01-01T00:00:00+00:00</time>
        <ele>4475.0</ele>
      </trkpt>
      <trkpt lat="45.8379520727248" lon="6.868762508571457">
        <time>1970-01-01T00:00:00+00:00</time>
        <ele>4480.0</ele>
      </trkpt>
      <trkpt lat="45.837780430299745" lon="6.868685344761943">
        <time>1970-01-01T00:00:00+00:00</time>
        <ele>4485.0</ele>
      </trkpt>
      <trkpt lat="45.83760878787467" lon="6.868608180952429">
        <time>1970-01-01T00:00:00+00:00</time>
        <ele>4490.0</ele>
      </trkpt>
      <trkpt lat="45.837555" lon="6.868584">
        <time>1970-01-01T00:00:00+00:00</time>
        <ele>4491.0</ele>
      </trkpt>
      <trkpt lat="45.837555" lon="6.868584">
        <time>1970-01-01T00:00:00+00:00</time>
        <ele>4491.0</ele>
      </trkpt>
      <trkpt lat="45.837376325252855" lon="6.868554357351757">
        <time>1970-01-01T00:00:00+00:00</time>
        <ele>4495.0</ele>
      </trkpt>
      <trkpt lat="45.83719765050571" lon="6.868524714703514">
        <time>1970-01-01T00:00:00+00:00</time>
        <ele>4500.0</ele>
      </trkpt>
      <trkpt lat="45.83701897575857" lon="6.868495072055271">
        <time>1970-01-01T00:00:00+00:00</time>
        <ele>4504.0</ele>
      </trkpt>
      <trkpt lat="45.83684030101142" lon="6.868465429407028">
        <time>1970-01-01T00:00:00+00:00</time>
        <ele>4510.0</ele>
      </trkpt>
      <trkpt lat="45.836661626264274" lon="6.868435786758784">
        <time>1970-01-01T00:00:00+00:00</time>
        <ele>4515.0</ele>
      </trkpt>
      <trkpt lat="45.83648295151713" lon="6.8684061441105415">
        <time>1970-01-01T00:00:00+00:00</time>
        <ele>4518.0</ele>
      </trkpt>
      <trkpt lat="45.836464" lon="6.868403">
        <time>1970-01-01T00:00:00+00:00</time>
        <ele>4519.0</ele>
      </trkpt>
      <trkpt lat="45.836464" lon="6.868403">
        <time>1970-01-01T00:00:00+00:00</time>
        <ele>4519.0</ele>
      </trkpt>
      <trkpt lat="45.836285230118264" lon="6.868431435911013">
        <time>1970-01-01T00:00:00+00:00</time>
        <ele>4519.0</ele>
      </trkpt>
      <trkpt lat="45.83610646023652" lon="6.8684598718220276">
        <time>1970-01-01T00:00:00+00:00</time>
        <ele>4518.0</ele>
      </trkpt>
      <trkpt lat="45.83592769035478" lon="6.86848830773304">
        <time>1970-01-01T00:00:00+00:00</time>
        <ele>4517.0</ele>
      </trkpt>
      <trkpt lat="45.835748920473044" lon="6.868516743644054">
        <time>1970-01-01T00:00:00+00:00</time>
        <ele>4516.0</ele>
      </trkpt>
      <trkpt lat="45.835609" lon="6.868539">
        <time>1970-01-01T00:00:00+00:00</time>
        <ele>4515.0</ele>
      </trkpt>
      <trkpt lat="45.835609" lon="6.868539">
        <time>1970-01-01T00:00:00+00:00</time>
        <ele>4515.0</ele>
      </trkpt>
      <trkpt lat="45.83542965534626" lon="6.868519390128094">
        <time>1970-01-01T00:00:00+00:00</time>
        <ele>4514.0</ele>
      </trkpt>
      <trkpt lat="45.835250310692516" lon="6.8684997802561885">
        <time>1970-01-01T00:00:00+00:00</time>
        <ele>4513.0</ele>
      </trkpt>
      <trkpt lat="45.83507096603877" lon="6.868480170384283">
        <time>1970-01-01T00:00:00+00:00</time>
        <ele>4511.0</ele>
      </trkpt>
      <trkpt lat="45.83489162138503" lon="6.868460560512376">
        <time>1970-01-01T00:00:00+00:00</time>
        <ele>4509.0</ele>
      </trkpt>
      <trkpt lat="45.834712276731295" lon="6.86844095064047">
        <time>1970-01-01T00:00:00+00:00</time>
        <ele>4508.0</ele>
      </trkpt>
      <trkpt lat="45.834667" lon="6.868436">
        <time>1970-01-01T00:00:00+00:00</time>
        <ele>4508.0</ele>
      </trkpt>
      <trkpt lat="45.834667" lon="6.868436">
        <time>1970-01-01T00:00:00+00:00</time>
        <ele>4508.0</ele>
      </trkpt>
      <trkpt lat="45.834533954392796" lon="6.86826227930504">
        <time>1970-01-01T00:00:00+00:00</time>
        <ele>4505.0</ele>
      </trkpt>
      <trkpt lat="45.83440090878558" lon="6.868088558610079">
        <time>1970-01-01T00:00:00+00:00</time>
        <ele>4503.0</ele>
      </trkpt>
      <trkpt lat="45.83426786317837" lon="6.867914837915119">
        <time>1970-01-01T00:00:00+00:00</time>
        <ele>4504.0</ele>
      </trkpt>
      <trkpt lat="45.834134817571154" lon="6.86774111722016">
        <time>1970-01-01T00:00:00+00:00</time>
        <ele>4507.0</ele>
      </trkpt>
      <trkpt lat="45.834003" lon="6.867569">
        <time>1970-01-01T00:00:00+00:00</time>
        <ele>4512.0</ele>
      </trkpt>
      <trkpt lat="45.834003" lon="6.867569">
        <time>1970-01-01T00:00:00+00:00</time>
        <ele>4512.0</ele>
      </trkpt>
      <trkpt lat="45.8338822836298" lon="6.867377628555981">
        <time>1970-01-01T00:00:00+00:00</time>
        <ele>4522.0</ele>
      </trkpt>
      <trkpt lat="45.8337615672596" lon="6.867186257111962">
        <time>1970-01-01T00:00:00+00:00</time>
        <ele>4535.0</ele>
      </trkpt>
      <trkpt lat="45.8336408508894" lon="6.866994885667944">
        <time>1970-01-01T00:00:00+00:00</time>
        <ele>4553.0</ele>
      </trkpt>
      <trkpt lat="45.833520134519205" lon="6.8668035142239265">
        <time>1970-01-01T00:00:00+00:00</time>
        <ele>4576.0</ele>
      </trkpt>
      <trkpt lat="45.833399418149" lon="6.866612142779907">
        <time>1970-01-01T00:00:00+00:00</time>
        <ele>4607.0</ele>
      </trkpt>
      <trkpt lat="45.833282" lon="6.866426">
        <time>1970-01-01T00:00:00+00:00</time>
        <ele>4639.0</ele>
      </trkpt>
      <trkpt lat="45.833282" lon="6.866426">
        <time>1970-01-01T00:00:00+00:00</time>
        <ele>4639.0</ele>
      </trkpt>
      <trkpt lat="45.83319484331907" lon="6.866200184963066">
        <time>1970-01-01T00:00:00+00:00</time>
        <ele>4672.0</ele>
      </trkpt>
      <trkpt lat="45.83310768663816" lon="6.865974369926132">
        <time>1970-01-01T00:00:00+00:00</time>
        <ele>4698.0</ele>
      </trkpt>
      <trkpt lat="45.83302052995723" lon="6.865748554889199">
        <time>1970-01-01T00:00:00+00:00</time>
        <ele>4719.0</ele>
      </trkpt>
      <trkpt lat="45.83293337327631" lon="6.865522739852265">
        <time>1970-01-01T00:00:00+00:00</time>
        <ele>4734.0</ele>
      </trkpt>
      <trkpt lat="45.832886" lon="6.8654">
        <time>1970-01-01T00:00:00+00:00</time>
        <ele>4740.0</ele>
      </trkpt>
      <trkpt lat="45.832886" lon="6.8654">
        <time>1970-01-01T00:00:00+00:00</time>
        <ele>4740.0</ele>
      </trkpt>
      <trkpt lat="45.832832627720705" lon="6.8651534813165185">
        <time>1970-01-01T00:00:00+00:00</time>
        <ele>4748.0</ele>
      </trkpt>
      <trkpt lat="45.83277925544141" lon="6.864906962633036">
        <time>1970-01-01T00:00:00+00:00</time>
        <ele>4756.0</ele>
      </trkpt>
      <trkpt lat="45.832725883162105" lon="6.864660443949553">
        <time>1970-01-01T00:00:00+00:00</time>
        <ele>4764.0</ele>
      </trkpt>
      <trkpt lat="45.83267251088281" lon="6.8644139252660725">
        <time>1970-01-01T00:00:00+00:00</time>
        <ele>4770.0</ele>
      </trkpt>
      <trkpt lat="45.832642" lon="6.864273">
        <time>1970-01-01T00:00:00+00:00</time>
        <ele>4772.0</ele>
      </trkpt>
      <trkpt lat="45.832642" lon="6.864273">
        <time>1970-01-01T00:00:00+00:00</time>
        <ele>4772.0</ele>
      </trkpt>
      <trkpt lat="45.83280361814323" lon="6.864159709708916">
        <time>1970-01-01T00:00:00+00:00</time>
        <ele>4768.0</ele>
      </trkpt>
      <trkpt lat="45.832965236286455" lon="6.864046419417832">
        <time>1970-01-01T00:00:00+00:00</time>
        <ele>4759.0</ele>
      </trkpt>
      <trkpt lat="45.83312685442969" lon="6.86393312912675">
        <time>1970-01-01T00:00:00+00:00</time>
        <ele>4747.0</ele>
      </trkpt>
      <trkpt lat="45.83328847257292" lon="6.863819838835666">
        <time>1970-01-01T00:00:00+00:00</time>
        <ele>4732.0</ele>
      </trkpt>
      <trkpt lat="45.833450090716156" lon="6.863706548544584">
        <time>1970-01-01T00:00:00+00:00</time>
        <ele>4718.0</ele>
      </trkpt>
      <trkpt lat="45.833565" lon="6.863626">
        <time>1970-01-01T00:00:00+00:00</time>
        <ele>4708.0</ele>
      </trkpt>
      <trkpt lat="45.833565" lon="6.863626">
        <time>1970-01-01T00:00:00+00:00</time>
        <ele>4708.0</ele>
      </trkpt>
      <trkpt lat="45.833722122541275" lon="6.863500354428593">
        <time>1970-01-01T00:00:00+00:00</time>
        <ele>4692.0</ele>
      </trkpt>
      <trkpt lat="45.83387924508256" lon="6.863374708857186">
        <time>1970-01-01T00:00:00+00:00</time>
        <ele>4678.0</ele>
      </trkpt>
      <trkpt lat="45.83403636762384" lon="6.863249063285779">
        <time>1970-01-01T00:00:00+00:00</time>
        <ele>4667.0</ele>
      </trkpt>
      <trkpt lat="45.834164" lon="6.863147">
        <time>1970-01-01T00:00:00+00:00</time>
        <ele>4654.0</ele>
      </trkpt>
      <trkpt lat="45.834164" lon="6.863147">
        <time>1970-01-01T00:00:00+00:00</time>
        <ele>4654.0</ele>
      </trkpt>
      <trkpt lat="45.83430771295316" lon="6.86299176697044">
        <time>1970-01-01T00:00:00+00:00</time>
        <ele>4641.0</ele>
      </trkpt>
      <trkpt lat="45.83445142590631" lon="6.862836533940879">
        <time>1970-01-01T00:00:00+00:00</time>
        <ele>4628.0</ele>
      </trkpt>
      <trkpt lat="45.83459513885946" lon="6.862681300911318">
        <time>1970-01-01T00:00:00+00:00</time>
        <ele>4617.0</ele>
      </trkpt>
      <trkpt lat="45.834663" lon="6.862608">
        <time>1970-01-01T00:00:00+00:00</time>
        <ele>4612.0</ele>
      </trkpt>
      <trkpt lat="45.834663" lon="6.862608">
        <time>1970-01-01T00:00:00+00:00</time>
        <ele>4612.0</ele>
      </trkpt>
      <trkpt lat="45.83484256962468" lon="6.8625932282056805">
        <time>1970-01-01T00:00:00+00:00</time>
        <ele>4600.0</ele>
      </trkpt>
      <trkpt lat="45.83502213924938" lon="6.862578456411361">
        <time>1970-01-01T00:00:00+00:00</time>
        <ele>4591.0</ele>
      </trkpt>
      <trkpt lat="45.835052" lon="6.862576">
        <time>1970-01-01T00:00:00+00:00</time>
        <ele>4589.0</ele>
      </trkpt>
      <trkpt lat="45.835052" lon="6.862576">
        <time>1970-01-01T00:00:00+00:00</time>
        <ele>4589.0</ele>
      </trkpt>
      <trkpt lat="45.835209601347024" lon="6.862700407434998">
        <time>1970-01-01T00:00:00+00:00</time>
        <ele>4582.0</ele>
      </trkpt>
      <trkpt lat="45.83536720269405" lon="6.862824814869995">
        <time>1970-01-01T00:00:00+00:00</time>
        <ele>4574.0</ele>
      </trkpt>
      <trkpt lat="45.83552480404107" lon="6.862949222304992">
        <time>1970-01-01T00:00:00+00:00</time>
        <ele>4567.0</ele>
      </trkpt>
      <trkpt lat="45.835617" lon="6.863022">
        <time>1970-01-01T00:00:00+00:00</time>
        <ele>4562.0</ele>
      </trkpt>
      <trkpt lat="45.835617" lon="6.863022">
        <time>1970-01-01T00:00:00+00:00</time>
        <ele>4562.0</ele>
      </trkpt>
      <trkpt lat="45.83574443571235" lon="6.863204183579068">
        <time>1970-01-01T00:00:00+00:00</time>
        <ele>4558.0</ele>
      </trkpt>
      <trkpt lat="45.83587187142471" lon="6.863386367158137">
        <time>1970-01-01T00:00:00+00:00</time>
        <ele>4554.0</ele>
      </trkpt>
      <trkpt lat="45.83599930713706" lon="6.863568550737205">
        <time>1970-01-01T00:00:00+00:00</time>
        <ele>4548.0</ele>
      </trkpt>
      <trkpt lat="45.836029" lon="6.863611">
        <time>1970-01-01T00:00:00+00:00</time>
        <ele>4546.0</ele>
      </trkpt>
      <trkpt lat="45.836029" lon="6.863611">
        <time>1970-01-01T00:00:00+00:00</time>
        <ele>4546.0</ele>
      </trkpt>
      <trkpt lat="45.83614906611204" lon="6.863803221227453">
        <time>1970-01-01T00:00:00+00:00</time>
        <ele>4538.0</ele>
      </trkpt>
      <trkpt lat="45.83626913222409" lon="6.863995442454906">
        <time>1970-01-01T00:00:00+00:00</time>
        <ele>4530.0</ele>
      </trkpt>
      <trkpt lat="45.83638919833612" lon="6.86418766368236">
        <time>1970-01-01T00:00:00+00:00</time>
        <ele>4524.0</ele>
      </trkpt>
      <trkpt lat="45.836445" lon="6.864277">
        <time>1970-01-01T00:00:00+00:00</time>
        <ele>4521.0</ele>
      </trkpt>
      <trkpt lat="45.836445" lon="6.864277">
        <time>1970-01-01T00:00:00+00:00</time>
        <ele>4521.0</ele>
      </trkpt>
      <trkpt lat="45.83661882578471" lon="6.864343332735848">
        <time>1970-01-01T00:00:00+00:00</time>
        <ele>4514.0</ele>
      </trkpt>
      <trkpt lat="45.83679265156941" lon="6.864409665471694">
        <time>1970-01-01T00:00:00+00:00</time>
        <ele>4508.0</ele>
      </trkpt>
      <trkpt lat="45.836956" lon="6.864472">
        <time>1970-01-01T00:00:00+00:00</time>
        <ele>4505.0</ele>
      </trkpt>
      <trkpt lat="45.836956" lon="6.864472">
        <time>1970-01-01T00:00:00+00:00</time>
        <ele>4505.0</ele>
      </trkpt>
      <trkpt lat="45.83711166414657" lon="6.864342661407632">
        <time>1970-01-01T00:00:00+00:00</time>
        <ele>4499.0</ele>
      </trkpt>
      <trkpt lat="45.83726732829314" lon="6.864213322815264">
        <time>1970-01-01T00:00:00+00:00</time>
        <ele>4493.0</ele>
      </trkpt>
      <trkpt lat="45.837364" lon="6.864133">
        <time>1970-01-01T00:00:00+00:00</time>
        <ele>4490.0</ele>
      </trkpt>
      <trkpt lat="45.837364" lon="6.864133">
        <time>1970-01-01T00:00:00+00:00</time>
        <ele>4490.0</ele>
      </trkpt>
      <trkpt lat="45.837374932295816" lon="6.863875310170005">
        <time>1970-01-01T00:00:00+00:00</time>
        <ele>4484.0</ele>
      </trkpt>
      <trkpt lat="45.83738586459164" lon="6.863617620340012">
        <time>1970-01-01T00:00:00+00:00</time>
        <ele>4476.0</ele>
      </trkpt>
      <trkpt lat="45.837396796887454" lon="6.863359930510017">
        <time>1970-01-01T00:00:00+00:00</time>
        <ele>4465.0</ele>
      </trkpt>
      <trkpt lat="45.837406" lon="6.863143">
        <time>1970-01-01T00:00:00+00:00</time>
        <ele>4456.0</ele>
      </trkpt>
      <trkpt lat="45.837406" lon="6.863143">
        <time>1970-01-01T00:00:00+00:00</time>
        <ele>4456.0</ele>
      </trkpt>
      <trkpt lat="45.83735306651697" lon="6.86289626633319">
        <time>1970-01-01T00:00:00+00:00</time>
        <ele>4451.0</ele>
      </trkpt>
      <trkpt lat="45.837300133033935" lon="6.86264953266638">
        <time>1970-01-01T00:00:00+00:00</time>
        <ele>4446.0</ele>
      </trkpt>
      <trkpt lat="45.8372471995509" lon="6.86240279899957">
        <time>1970-01-01T00:00:00+00:00</time>
        <ele>4441.0</ele>
      </trkpt>
      <trkpt lat="45.837223" lon="6.86229">
        <time>1970-01-01T00:00:00+00:00</time>
        <ele>4438.0</ele>
      </trkpt>
      <trkpt lat="45.837223" lon="6.86229">
        <time>1970-01-01T00:00:00+00:00</time>
        <ele>4438.0</ele>
      </trkpt>
      <trkpt lat="45.83715302920152" lon="6.862052169962732">
        <time>1970-01-01T00:00:00+00:00</time>
        <ele>4431.0</ele>
      </trkpt>
      <trkpt lat="45.83708305840304" lon="6.861814339925463">
        <time>1970-01-01T00:00:00+00:00</time>
        <ele>4423.0</ele>
      </trkpt>
      <trkpt lat="45.837025" lon="6.861617">
        <time>1970-01-01T00:00:00+00:00</time>
        <ele>4417.0</ele>
      </trkpt>
      <trkpt lat="45.837025" lon="6.861617">
        <time>1970-01-01T00:00:00+00:00</time>
        <ele>4417.0</ele>
      </trkpt>
      <trkpt lat="45.83709777456119" lon="6.8613809097569">
        <time>1970-01-01T00:00:00+00:00</time>
        <ele>4401.0</ele>
      </trkpt>
      <trkpt lat="45.837170549122376" lon="6.861144819513799">
        <time>1970-01-01T00:00:00+00:00</time>
        <ele>4386.0</ele>
      </trkpt>
      <trkpt lat="45.837238" lon="6.860926">
        <time>1970-01-01T00:00:00+00:00</time>
        <ele>4373.0</ele>
      </trkpt>
      <trkpt lat="45.837238" lon="6.860926">
        <time>1970-01-01T00:00:00+00:00</time>
        <ele>4373.0</ele>
      </trkpt>
      <trkpt lat="45.83737114393963" lon="6.860752424916399">
        <time>1970-01-01T00:00:00+00:00</time>
        <ele>4357.0</ele>
      </trkpt>
      <trkpt lat="45.837504287879256" lon="6.860578849832798">
        <time>1970-01-01T00:00:00+00:00</time>
        <ele>4340.0</ele>
      </trkpt>
      <trkpt lat="45.83762" lon="6.860428">
        <time>1970-01-01T00:00:00+00:00</time>
        <ele>4328.0</ele>
      </trkpt>
      <trkpt lat="45.83762" lon="6.860428">
        <time>1970-01-01T00:00:00+00:00</time>
        <ele>4328.0</ele>
      </trkpt>
      <trkpt lat="45.83776959330404" lon="6.8602846583564325">
        <time>1970-01-01T00:00:00+00:00</time>
        <ele>4315.0</ele>
      </trkpt>
      <trkpt lat="45.83791918660807" lon="6.860141316712864">
        <time>1970-01-01T00:00:00+00:00</time>
        <ele>4299.0</ele>
      </trkpt>
      <trkpt lat="45.837955" lon="6.860107">
        <time>1970-01-01T00:00:00+00:00</time>
        <ele>4296.0</ele>
      </trkpt>
      <trkpt lat="45.837955" lon="6.860107">
        <time>1970-01-01T00:00:00+00:00</time>
        <ele>4296.0</ele>
      </trkpt>
      <trkpt lat="45.83796505126972" lon="6.859849233566951">
        <time>1970-01-01T00:00:00+00:00</time>
        <ele>4292.0</ele>
      </trkpt>
      <trkpt lat="45.83797510253943" lon="6.859591467133901">
        <time>1970-01-01T00:00:00+00:00</time>
        <ele>4283.0</ele>
      </trkpt>
      <trkpt lat="45.83798515380915" lon="6.859333700700852">
        <time>1970-01-01T00:00:00+00:00</time>
        <ele>4271.0</ele>
      </trkpt>
      <trkpt lat="45.837986" lon="6.859312">
        <time>1970-01-01T00:00:00+00:00</time>
        <ele>4270.0</ele>
      </trkpt>
      <trkpt lat="45.837986" lon="6.859312">
        <time>1970-01-01T00:00:00+00:00</time>
        <ele>4270.0</ele>
      </trkpt>
      <trkpt lat="45.83805182048001" lon="6.859071737264214">
        <time>1970-01-01T00:00:00+00:00</time>
        <ele>4254.0</ele>
      </trkpt>
      <trkpt lat="45.83811764096002" lon="6.858831474528428">
        <time>1970-01-01T00:00:00+00:00</time>
        <ele>4238.0</ele>
      </trkpt>
      <trkpt lat="45.838169" lon="6.858644">
        <time>1970-01-01T00:00:00+00:00</time>
        <ele>4226.0</ele>
      </trkpt>
      <trkpt lat="45.838169" lon="6.858644">
        <time>1970-01-01T00:00:00+00:00</time>
        <ele>4226.0</ele>
      </trkpt>
      <trkpt lat="45.83829860462717" lon="6.858464988084021">
        <time>1970-01-01T00:00:00+00:00</time>
        <ele>4211.0</ele>
      </trkpt>
      <trkpt lat="45.83842820925434" lon="6.858285976168044">
        <time>1970-01-01T00:00:00+00:00</time>
        <ele>4196.0</ele>
      </trkpt>
      <trkpt lat="45.838531" lon="6.858144">
        <time>1970-01-01T00:00:00+00:00</time>
        <ele>4186.0</ele>
      </trkpt>
      <trkpt lat="45.838531" lon="6.858144">
        <time>1970-01-01T00:00:00+00:00</time>
        <ele>4186.0</ele>
      </trkpt>
      <trkpt lat="45.83868052678615" lon="6.858000512596586">
        <time>1970-01-01T00:00:00+00:00</time>
        <ele>4175.0</ele>
      </trkpt>
      <trkpt lat="45.83883005357229" lon="6.857857025193171">
        <time>1970-01-01T00:00:00+00:00</time>
        <ele>4166.0</ele>
      </trkpt>
      <trkpt lat="45.838979580358426" lon="6.857713537789757">
        <time>1970-01-01T00:00:00+00:00</time>
        <ele>4159.0</ele>
      </trkpt>
      <trkpt lat="45.83912910714457" lon="6.857570050386342">
        <time>1970-01-01T00:00:00+00:00</time>
        <ele>4153.0</ele>
      </trkpt>
      <trkpt lat="45.839249" lon="6.857455">
        <time>1970-01-01T00:00:00+00:00</time>
        <ele>4148.0</ele>
      </trkpt>
      <trkpt lat="45.839249" lon="6.857455">
        <time>1970-01-01T00:00:00+00:00</time>
        <ele>4148.0</ele>
      </trkpt>
      <trkpt lat="45.839416771755985" lon="6.857361933208825">
        <time>1970-01-01T00:00:00+00:00</time>
        <ele>4140.0</ele>
      </trkpt>
      <trkpt lat="45.83958454351197" lon="6.857268866417652">
        <time>1970-01-01T00:00:00+00:00</time>
        <ele>4130.0</ele>
      </trkpt>
      <trkpt lat="45.839752315267944" lon="6.857175799626477">
        <time>1970-01-01T00:00:00+00:00</time>
        <ele>4121.0</ele>
      </trkpt>
      <trkpt lat="45.839916" lon="6.857085">
        <time>1970-01-01T00:00:00+00:00</time>
        <ele>4112.0</ele>
      </trkpt>
      <trkpt lat="45.839916" lon="6.857085">
        <time>1970-01-01T00:00:00+00:00</time>
        <ele>4112.0</ele>
      </trkpt>
      <trkpt lat="45.84008855255361" lon="6.857012135090581">
        <time>1970-01-01T00:00:00+00:00</time>
        <ele>4102.0</ele>
      </trkpt>
      <trkpt lat="45.84026110510722" lon="6.856939270181162">
        <time>1970-01-01T00:00:00+00:00</time>
        <ele>4089.0</ele>
      </trkpt>
      <trkpt lat="45.840433657660824" lon="6.856866405271743">
        <time>1970-01-01T00:00:00+00:00</time>
        <ele>4077.0</ele>
      </trkpt>
      <trkpt lat="45.84060621021444" lon="6.856793540362324">
        <time>1970-01-01T00:00:00+00:00</time>
        <ele>4068.0</ele>
      </trkpt>
      <trkpt lat="45.840733" lon="6.85674">
        <time>1970-01-01T00:00:00+00:00</time>
        <ele>4064.0</ele>
      </trkpt>
      <trkpt lat="45.840733" lon="6.85674">
        <time>1970-01-01T00:00:00+00:00</time>
        <ele>4064.0</ele>
      </trkpt>
      <trkpt lat="45.84091272249619" lon="6.856750250961145">
        <time>1970-01-01T00:00:00+00:00</time>
        <ele>4059.0</ele>
      </trkpt>
      <trkpt lat="45.841092444992384" lon="6.85676050192229">
        <time>1970-01-01T00:00:00+00:00</time>
        <ele>4054.0</ele>
      </trkpt>
      <trkpt lat="45.841272167488576" lon="6.856770752883433">
        <time>1970-01-01T00:00:00+00:00</time>
        <ele>4050.0</ele>
      </trkpt>
      <trkpt lat="45.84145188998477" lon="6.856781003844578">
        <time>1970-01-01T00:00:00+00:00</time>
        <ele>4045.0</ele>
      </trkpt>
      <trkpt lat="45.84163161248096" lon="6.856791254805723">
        <time>1970-01-01T00:00:00+00:00</time>
        <ele>4041.0</ele>
      </trkpt>
      <trkpt lat="45.84181133497715" lon="6.8568015057668665">
        <time>1970-01-01T00:00:00+00:00</time>
        <ele>4037.0</ele>
      </trkpt>
      <trkpt lat="45.84182" lon="6.856802">
        <time>1970-01-01T00:00:00+00:00</time>
        <ele>4037.0</ele>
      </trkpt>
      <trkpt lat="45.84182" lon="6.856802">
        <time>1970-01-01T00:00:00+00:00</time>
        <ele>4037.0</ele>
      </trkpt>
      <trkpt lat="45.84199912344001" lon="6.856825410457059">
        <time>1970-01-01T00:00:00+00:00</time>
        <ele>4034.0</ele>
      </trkpt>
      <trkpt lat="45.84217824688002" lon="6.856848820914118">
        <time>1970-01-01T00:00:00+00:00</time>
        <ele>4031.0</ele>
      </trkpt>
      <trkpt lat="45.84235737032004" lon="6.856872231371177">
        <time>1970-01-01T00:00:00+00:00</time>
        <ele>4027.0</ele>
      </trkpt>
      <trkpt lat="45.84253649376005" lon="6.856895641828236">
        <time>1970-01-01T00:00:00+00:00</time>
        <ele>4024.0</ele>
      </trkpt>
      <trkpt lat="45.84271561720006" lon="6.856919052285295">
        <time>1970-01-01T00:00:00+00:00</time>
        <ele>4020.0</ele>
      </trkpt>
      <trkpt lat="45.84289474064007" lon="6.856942462742354">
        <time>1970-01-01T00:00:00+00:00</time>
        <ele>4016.0</ele>
      </trkpt>
      <trkpt lat="45.84307386408008" lon="6.856965873199412">
        <time>1970-01-01T00:00:00+00:00</time>
        <ele>4012.0</ele>
      </trkpt>
      <trkpt lat="45.843159" lon="6.856977">
        <time>1970-01-01T00:00:00+00:00</time>
        <ele>4010.0</ele>
      </trkpt>
      <trkpt lat="45.843159" lon="6.856977">
        <time>1970-01-01T00:00:00+00:00</time>
        <ele>4010.0</ele>
      </trkpt>
      <trkpt lat="45.84333878308832" lon="6.856984759059601">
        <time>1970-01-01T00:00:00+00:00</time>
        <ele>4007.0</ele>
      </trkpt>
      <trkpt lat="45.84351856617663" lon="6.856992518119202">
        <time>1970-01-01T00:00:00+00:00</time>
        <ele>4004.0</ele>
      </trkpt>
      <trkpt lat="45.84369834926495" lon="6.857000277178803">
        <time>1970-01-01T00:00:00+00:00</time>
        <ele>4001.0</ele>
      </trkpt>
      <trkpt lat="45.84387813235326" lon="6.857008036238404">
        <time>1970-01-01T00:00:00+00:00</time>
        <ele>3998.0</ele>
      </trkpt>
      <trkpt lat="45.84405791544158" lon="6.857015795298005">
        <time>1970-01-01T00:00:00+00:00</time>
        <ele>3994.0</ele>
      </trkpt>
      <trkpt lat="45.844109" lon="6.857018">
        <time>1970-01-01T00:00:00+00:00</time>
        <ele>3992.0</ele>
      </trkpt>
      <trkpt lat="45.844109" lon="6.857018">
        <time>1970-01-01T00:00:00+00:00</time>
        <ele>3992.0</ele>
      </trkpt>
      <trkpt lat="45.84428882563358" lon="6.857012644961921">
        <time>1970-01-01T00:00:00+00:00</time>
        <ele>3988.0</ele>
      </trkpt>
      <trkpt lat="45.84446865126717" lon="6.857007289923841">
        <time>1970-01-01T00:00:00+00:00</time>
        <ele>3984.0</ele>
      </trkpt>
      <trkpt lat="45.844648476900744" lon="6.857001934885761">
        <time>1970-01-01T00:00:00+00:00</time>
        <ele>3980.0</ele>
      </trkpt>
      <trkpt lat="45.844828302534324" lon="6.8569965798476815">
        <time>1970-01-01T00:00:00+00:00</time>
        <ele>3976.0</ele>
      </trkpt>
      <trkpt lat="45.845008128167905" lon="6.856991224809601">
        <time>1970-01-01T00:00:00+00:00</time>
        <ele>3972.0</ele>
      </trkpt>
      <trkpt lat="45.84515" lon="6.856987">
        <time>1970-01-01T00:00:00+00:00</time>
        <ele>3968.0</ele>
      </trkpt>
      <trkpt lat="45.84515" lon="6.856987">
        <time>1970-01-01T00:00:00+00:00</time>
        <ele>3968.0</ele>
      </trkpt>
      <trkpt lat="45.845326710029184" lon="6.856938855532867">
        <time>1970-01-01T00:00:00+00:00</time>
        <ele>3965.0</ele>
      </trkpt>
      <trkpt lat="45.84550342005835" lon="6.856890711065734">
        <time>1970-01-01T00:00:00+00:00</time>
        <ele>3961.0</ele>
      </trkpt>
      <trkpt lat="45.84568013008753" lon="6.8568425665986">
        <time>1970-01-01T00:00:00+00:00</time>
        <ele>3957.0</ele>
      </trkpt>
      <trkpt lat="45.84585684011671" lon="6.8567944221314665">
        <time>1970-01-01T00:00:00+00:00</time>
        <ele>3951.0</ele>
      </trkpt>
      <trkpt lat="45.8460335501459" lon="6.8567462776643335">
        <time>1970-01-01T00:00:00+00:00</time>
        <ele>3946.0</ele>
      </trkpt>
      <trkpt lat="45.84613" lon="6.85672">
        <time>1970-01-01T00:00:00+00:00</time>
        <ele>3944.0</ele>
      </trkpt>
      <trkpt lat="45.84613" lon="6.85672">
        <time>1970-01-01T00:00:00+00:00</time>
        <ele>3944.0</ele>
      </trkpt>
      <trkpt lat="45.84630174545967" lon="6.856643298144228">
        <time>1970-01-01T00:00:00+00:00</time>
        <ele>3939.0</ele>
      </trkpt>
      <trkpt lat="45.84647349091932" lon="6.856566596288456">
        <time>1970-01-01T00:00:00+00:00</time>
        <ele>3935.0</ele>
      </trkpt>
      <trkpt lat="45.84664523637899" lon="6.856489894432683">
        <time>1970-01-01T00:00:00+00:00</time>
        <ele>3932.0</ele>
      </trkpt>
      <trkpt lat="45.84681698183866" lon="6.856413192576912">
        <time>1970-01-01T00:00:00+00:00</time>
        <ele>3929.0</ele>
      </trkpt>
      <trkpt lat="45.846988727298324" lon="6.856336490721139">
        <time>1970-01-01T00:00:00+00:00</time>
        <ele>3929.0</ele>
      </trkpt>
      <trkpt lat="45.847057" lon="6.856306">
        <time>1970-01-01T00:00:00+00:00</time>
        <ele>3929.0</ele>
      </trkpt>
      <trkpt lat="45.847057" lon="6.856306">
        <time>1970-01-01T00:00:00+00:00</time>
        <ele>3929.0</ele>
      </trkpt>
      <trkpt lat="45.84723665494295" lon="6.856293544486917">
        <time>1970-01-01T00:00:00+00:00</time>
        <ele>3928.0</ele>
      </trkpt>
      <trkpt lat="45.8474163098859" lon="6.856281088973833">
        <time>1970-01-01T00:00:00+00:00</time>
        <ele>3927.0</ele>
      </trkpt>
      <trkpt lat="45.84759596482884" lon="6.85626863346075">
        <time>1970-01-01T00:00:00+00:00</time>
        <ele>3925.0</ele>
      </trkpt>
      <trkpt lat="45.847775619771795" lon="6.856256177947666">
        <time>1970-01-01T00:00:00+00:00</time>
        <ele>3924.0</ele>
      </trkpt>
      <trkpt lat="45.847908" lon="6.856247">
        <time>1970-01-01T00:00:00+00:00</time>
        <ele>3923.0</ele>
      </trkpt>
      <trkpt lat="45.847908" lon="6.856247">
        <time>1970-01-01T00:00:00+00:00</time>
        <ele>3923.0</ele>
      </trkpt>
      <trkpt lat="45.84808634731362" lon="6.8562804661043035">
        <time>1970-01-01T00:00:00+00:00</time>
        <ele>3918.0</ele>
      </trkpt>
      <trkpt lat="45.84826469462723" lon="6.856313932208607">
        <time>1970-01-01T00:00:00+00:00</time>
        <ele>3913.0</ele>
      </trkpt>
      <trkpt lat="45.848443041940854" lon="6.856347398312911">
        <time>1970-01-01T00:00:00+00:00</time>
        <ele>3907.0</ele>
      </trkpt>
      <trkpt lat="45.848621389254475" lon="6.856380864417216">
        <time>1970-01-01T00:00:00+00:00</time>
        <ele>3901.0</ele>
      </trkpt>
      <trkpt lat="45.848766" lon="6.856408">
        <time>1970-01-01T00:00:00+00:00</time>
        <ele>3894.0</ele>
      </trkpt>
      <trkpt lat="45.848766" lon="6.856408">
        <time>1970-01-01T00:00:00+00:00</time>
        <ele>3894.0</ele>
      </trkpt>
      <trkpt lat="45.84894479200234" lon="6.856436154602669">
        <time>1970-01-01T00:00:00+00:00</time>
        <ele>3885.0</ele>
      </trkpt>
      <trkpt lat="45.849123584004694" lon="6.856464309205337">
        <time>1970-01-01T00:00:00+00:00</time>
        <ele>3875.0</ele>
      </trkpt>
      <trkpt lat="45.849302376007046" lon="6.856492463808005">
        <time>1970-01-01T00:00:00+00:00</time>
        <ele>3865.0</ele>
      </trkpt>
      <trkpt lat="45.84948116800939" lon="6.856520618410674">
        <time>1970-01-01T00:00:00+00:00</time>
        <ele>3856.0</ele>
      </trkpt>
      <trkpt lat="45.849636" lon="6.856545">
        <time>1970-01-01T00:00:00+00:00</time>
        <ele>3848.0</ele>
      </trkpt>
      <trkpt lat="45.849636" lon="6.856545">
        <time>1970-01-01T00:00:00+00:00</time>
        <ele>3848.0</ele>
      </trkpt>
      <trkpt lat="45.84981193533919" lon="6.856598678231039">
        <time>1970-01-01T00:00:00+00:00</time>
        <ele>3837.0</ele>
      </trkpt>
      <trkpt lat="45.84998787067839" lon="6.856652356462079">
        <time>1970-01-01T00:00:00+00:00</time>
        <ele>3824.0</ele>
      </trkpt>
      <trkpt lat="45.850163806017584" lon="6.85670603469312">
        <time>1970-01-01T00:00:00+00:00</time>
        <ele>3810.0</ele>
      </trkpt>
      <trkpt lat="45.850339741356784" lon="6.85675971292416">
        <time>1970-01-01T00:00:00+00:00</time>
        <ele>3796.0</ele>
      </trkpt>
      <trkpt lat="45.85051567669598" lon="6.8568133911552005">
        <time>1970-01-01T00:00:00+00:00</time>
        <ele>3784.0</ele>
      </trkpt>
      <trkpt lat="45.850616" lon="6.856844">
        <time>1970-01-01T00:00:00+00:00</time>
        <ele>3776.0</ele>
      </trkpt>
      <trkpt lat="45.850616" lon="6.856844">
        <time>1970-01-01T00:00:00+00:00</time>
        <ele>3776.0</ele>
      </trkpt>
      <trkpt lat="45.85079141529559" lon="6.85690107958031">
        <time>1970-01-01T00:00:00+00:00</time>
        <ele>3763.0</ele>
      </trkpt>
      <trkpt lat="45.850966830591176" lon="6.856958159160621">
        <time>1970-01-01T00:00:00+00:00</time>
        <ele>3750.0</ele>
      </trkpt>
      <trkpt lat="45.85114224588677" lon="6.857015238740932">
        <time>1970-01-01T00:00:00+00:00</time>
        <ele>3739.0</ele>
      </trkpt>
      <trkpt lat="45.85131766118236" lon="6.857072318321243">
        <time>1970-01-01T00:00:00+00:00</time>
        <ele>3733.0</ele>
      </trkpt>
      <trkpt lat="45.851493076477944" lon="6.857129397901554">
        <time>1970-01-01T00:00:00+00:00</time>
        <ele>3728.0</ele>
      </trkpt>
      <trkpt lat="45.851624" lon="6.857172">
        <time>1970-01-01T00:00:00+00:00</time>
        <ele>3725.0</ele>
      </trkpt>
      <trkpt lat="45.851624" lon="6.857172">
        <time>1970-01-01T00:00:00+00:00</time>
        <ele>3725.0</ele>
      </trkpt>
      <trkpt lat="45.851803234193454" lon="6.857150403087051">
        <time>1970-01-01T00:00:00+00:00</time>
        <ele>3721.0</ele>
      </trkpt>
      <trkpt lat="45.8519824683869" lon="6.857128806174101">
        <time>1970-01-01T00:00:00+00:00</time>
        <ele>3716.0</ele>
      </trkpt>
      <trkpt lat="45.85216170258035" lon="6.857107209261152">
        <time>1970-01-01T00:00:00+00:00</time>
        <ele>3710.0</ele>
      </trkpt>
      <trkpt lat="45.85234093677379" lon="6.857085612348202">
        <time>1970-01-01T00:00:00+00:00</time>
        <ele>3704.0</ele>
      </trkpt>
      <trkpt lat="45.852512" lon="6.857065">
        <time>1970-01-01T00:00:00+00:00</time>
        <ele>3698.0</ele>
      </trkpt>
      <trkpt lat="45.852512" lon="6.857065">
        <time>1970-01-01T00:00:00+00:00</time>
        <ele>3698.0</ele>
      </trkpt>
      <trkpt lat="45.85269132489516" lon="6.857045014996624">
        <time>1970-01-01T00:00:00+00:00</time>
        <ele>3691.0</ele>
      </trkpt>
      <trkpt lat="45.852870649790326" lon="6.857025029993247">
        <time>1970-01-01T00:00:00+00:00</time>
        <ele>3685.0</ele>
      </trkpt>
      <trkpt lat="45.85304997468549" lon="6.8570050449898705">
        <time>1970-01-01T00:00:00+00:00</time>
        <ele>3679.0</ele>
      </trkpt>
      <trkpt lat="45.853176" lon="6.856991">
        <time>1970-01-01T00:00:00+00:00</time>
        <ele>3675.0</ele>
      </trkpt>
      <trkpt lat="45.853176" lon="6.856991">
        <time>1970-01-01T00:00:00+00:00</time>
        <ele>3675.0</ele>
      </trkpt>
      <trkpt lat="45.85334272709166" lon="6.85689411804133">
        <time>1970-01-01T00:00:00+00:00</time>
        <ele>3671.0</ele>
      </trkpt>
      <trkpt lat="45.853509454183325" lon="6.856797236082661">
        <time>1970-01-01T00:00:00+00:00</time>
        <ele>3665.0</ele>
      </trkpt>
      <trkpt lat="45.85367618127499" lon="6.856700354123992">
        <time>1970-01-01T00:00:00+00:00</time>
        <ele>3659.0</ele>
      </trkpt>
      <trkpt lat="45.85384290836665" lon="6.856603472165323">
        <time>1970-01-01T00:00:00+00:00</time>
        <ele>3655.0</ele>
      </trkpt>
      <trkpt lat="45.853916" lon="6.856561">
        <time>1970-01-01T00:00:00+00:00</time>
        <ele>3653.0</ele>
      </trkpt>
      <trkpt lat="45.853916" lon="6.856561">
        <time>1970-01-01T00:00:00+00:00</time>
        <ele>3653.0</ele>
      </trkpt>
      <trkpt lat="45.854086975104174" lon="6.856480818571836">
        <time>1970-01-01T00:00:00+00:00</time>
        <ele>3651.0</ele>
      </trkpt>
      <trkpt lat="45.85425795020835" lon="6.856400637143672">
        <time>1970-01-01T00:00:00+00:00</time>
        <ele>3649.0</ele>
      </trkpt>
      <trkpt lat="45.85442892531252" lon="6.856320455715508">
        <time>1970-01-01T00:00:00+00:00</time>
        <ele>3646.0</ele>
      </trkpt>
      <trkpt lat="45.854599900416694" lon="6.856240274287344">
        <time>1970-01-01T00:00:00+00:00</time>
        <ele>3642.0</ele>
      </trkpt>
      <trkpt lat="45.854641" lon="6.856221">
        <time>1970-01-01T00:00:00+00:00</time>
        <ele>3641.0</ele>
      </trkpt>
      <trkpt lat="45.854641" lon="6.856221">
        <time>1970-01-01T00:00:00+00:00</time>
        <ele>3641.0</ele>
      </trkpt>
      <trkpt lat="45.854820507770555" lon="6.856204747269422">
        <time>1970-01-01T00:00:00+00:00</time>
        <ele>3633.0</ele>
      </trkpt>
      <trkpt lat="45.85500001554111" lon="6.856188494538847">
        <time>1970-01-01T00:00:00+00:00</time>
        <ele>3625.0</ele>
      </trkpt>
      <trkpt lat="45.85517952331166" lon="6.8561722418082685">
        <time>1970-01-01T00:00:00+00:00</time>
        <ele>3618.0</ele>
      </trkpt>
      <trkpt lat="45.85535903108221" lon="6.856155989077692">
        <time>1970-01-01T00:00:00+00:00</time>
        <ele>3610.0</ele>
      </trkpt>
      <trkpt lat="45.855381" lon="6.856154">
        <time>1970-01-01T00:00:00+00:00</time>
        <ele>3609.0</ele>
      </trkpt>
      <trkpt lat="45.855381" lon="6.856154">
        <time>1970-01-01T00:00:00+00:00</time>
        <ele>3609.0</ele>
      </trkpt>
      <trkpt lat="45.855555690343934" lon="6.856092503118758">
        <time>1970-01-01T00:00:00+00:00</time>
        <ele>3600.0</ele>
      </trkpt>
      <trkpt lat="45.85573038068786" lon="6.856031006237515">
        <time>1970-01-01T00:00:00+00:00</time>
        <ele>3588.0</ele>
      </trkpt>
      <trkpt lat="45.855905071031785" lon="6.855969509356273">
        <time>1970-01-01T00:00:00+00:00</time>
        <ele>3573.0</ele>
      </trkpt>
      <trkpt lat="45.85607976137571" lon="6.85590801247503">
        <time>1970-01-01T00:00:00+00:00</time>
        <ele>3559.0</ele>
      </trkpt>
      <trkpt lat="45.856094" lon="6.855903">
        <time>1970-01-01T00:00:00+00:00</time>
        <ele>3558.0</ele>
      </trkpt>
      <trkpt lat="45.856094" lon="6.855903">
        <time>1970-01-01T00:00:00+00:00</time>
        <ele>3558.0</ele>
      </trkpt>
      <trkpt lat="45.856259501309964" lon="6.855801872992668">
        <time>1970-01-01T00:00:00+00:00</time>
        <ele>3544.0</ele>
      </trkpt>
      <trkpt lat="45.856425002619936" lon="6.855700745985336">
        <time>1970-01-01T00:00:00+00:00</time>
        <ele>3529.0</ele>
      </trkpt>
      <trkpt lat="45.8565905039299" lon="6.855599618978005">
        <time>1970-01-01T00:00:00+00:00</time>
        <ele>3516.0</ele>
      </trkpt>
      <trkpt lat="45.85675600523987" lon="6.855498491970673">
        <time>1970-01-01T00:00:00+00:00</time>
        <ele>3505.0</ele>
      </trkpt>
      <trkpt lat="45.856819" lon="6.85546">
        <time>1970-01-01T00:00:00+00:00</time>
        <ele>3500.0</ele>
      </trkpt>
      <trkpt lat="45.856819" lon="6.85546">
        <time>1970-01-01T00:00:00+00:00</time>
        <ele>3500.0</ele>
      </trkpt>
      <trkpt lat="45.85697196723258" lon="6.855324145063562">
        <time>1970-01-01T00:00:00+00:00</time>
        <ele>3491.0</ele>
      </trkpt>
      <trkpt lat="45.85712493446516" lon="6.855188290127124">
        <time>1970-01-01T00:00:00+00:00</time>
        <ele>3483.0</ele>
      </trkpt>
      <trkpt lat="45.857277901697735" lon="6.855052435190686">
        <time>1970-01-01T00:00:00+00:00</time>
        <ele>3478.0</ele>
      </trkpt>
      <trkpt lat="45.857430868930315" lon="6.8549165802542475">
        <time>1970-01-01T00:00:00+00:00</time>
        <ele>3471.0</ele>
      </trkpt>
      <trkpt lat="45.857552" lon="6.854809">
        <time>1970-01-01T00:00:00+00:00</time>
        <ele>3467.0</ele>
      </trkpt>
      <trkpt lat="45.857552" lon="6.854809">
        <time>1970-01-01T00:00:00+00:00</time>
        <ele>3467.0</ele>
      </trkpt>
      <trkpt lat="45.857723235734156" lon="6.854729968122696">
        <time>1970-01-01T00:00:00+00:00</time>
        <ele>3460.0</ele>
      </trkpt>
      <trkpt lat="45.85789447146831" lon="6.854650936245391">
        <time>1970-01-01T00:00:00+00:00</time>
        <ele>3453.0</ele>
      </trkpt>
      <trkpt lat="45.858065707202485" lon="6.854571904368086">
        <time>1970-01-01T00:00:00+00:00</time>
        <ele>3445.0</ele>
      </trkpt>
      <trkpt lat="45.858236942936635" lon="6.854492872490781">
        <time>1970-01-01T00:00:00+00:00</time>
        <ele>3437.0</ele>
      </trkpt>
      <trkpt lat="45.8584081786708" lon="6.854413840613477">
        <time>1970-01-01T00:00:00+00:00</time>
        <ele>3430.0</ele>
      </trkpt>
      <trkpt lat="45.858475" lon="6.854383">
        <time>1970-01-01T00:00:00+00:00</time>
        <ele>3427.0</ele>
      </trkpt>
      <trkpt lat="45.858475" lon="6.854383">
        <time>1970-01-01T00:00:00+00:00</time>
        <ele>3427.0</ele>
      </trkpt>
      <trkpt lat="45.858652457158854" lon="6.854340887970568">
        <time>1970-01-01T00:00:00+00:00</time>
        <ele>3416.0</ele>
      </trkpt>
      <trkpt lat="45.85882991431771" lon="6.854298775941135">
        <time>1970-01-01T00:00:00+00:00</time>
        <ele>3406.0</ele>
      </trkpt>
      <trkpt lat="45.85900737147656" lon="6.854256663911702">
        <time>1970-01-01T00:00:00+00:00</time>
        <ele>3396.0</ele>
      </trkpt>
      <trkpt lat="45.859184828635414" lon="6.8542145518822695">
        <time>1970-01-01T00:00:00+00:00</time>
        <ele>3387.0</ele>
      </trkpt>
      <trkpt lat="45.859322" lon="6.854182">
        <time>1970-01-01T00:00:00+00:00</time>
        <ele>3379.0</ele>
      </trkpt>
      <trkpt lat="45.859322" lon="6.854182">
        <time>1970-01-01T00:00:00+00:00</time>
        <ele>3379.0</ele>
      </trkpt>
      <trkpt lat="45.85949609833591" lon="6.85411712978058">
        <time>1970-01-01T00:00:00+00:00</time>
        <ele>3369.0</ele>
      </trkpt>
      <trkpt lat="45.85967019667183" lon="6.8540522595611595">
        <time>1970-01-01T00:00:00+00:00</time>
        <ele>3360.0</ele>
      </trkpt>
      <trkpt lat="45.85984429500773" lon="6.853987389341741">
        <time>1970-01-01T00:00:00+00:00</time>
        <ele>3350.0</ele>
      </trkpt>
      <trkpt lat="45.860001" lon="6.853929">
        <time>1970-01-01T00:00:00+00:00</time>
        <ele>3342.0</ele>
      </trkpt>
      <trkpt lat="45.860001" lon="6.853929">
        <time>1970-01-01T00:00:00+00:00</time>
        <ele>3342.0</ele>
      </trkpt>
      <trkpt lat="45.860180563736165" lon="6.853914074625511">
        <time>1970-01-01T00:00:00+00:00</time>
        <ele>3333.0</ele>
      </trkpt>
      <trkpt lat="45.86036012747233" lon="6.853899149251021">
        <time>1970-01-01T00:00:00+00:00</time>
        <ele>3323.0</ele>
      </trkpt>
      <trkpt lat="45.8605396912085" lon="6.8538842238765305">
        <time>1970-01-01T00:00:00+00:00</time>
        <ele>3312.0</ele>
      </trkpt>
      <trkpt lat="45.86071925494467" lon="6.853869298502041">
        <time>1970-01-01T00:00:00+00:00</time>
        <ele>3298.0</ele>
      </trkpt>
      <trkpt lat="45.860783" lon="6.853864">
        <time>1970-01-01T00:00:00+00:00</time>
        <ele>3294.0</ele>
      </trkpt>
      <trkpt lat="45.860783" lon="6.853864">
        <time>1970-01-01T00:00:00+00:00</time>
        <ele>3294.0</ele>
      </trkpt>
      <trkpt lat="45.860961585820036" lon="6.853894740182137">
        <time>1970-01-01T00:00:00+00:00</time>
        <ele>3282.0</ele>
      </trkpt>
      <trkpt lat="45.86114017164007" lon="6.853925480364275">
        <time>1970-01-01T00:00:00+00:00</time>
        <ele>3269.0</ele>
      </trkpt>
      <trkpt lat="45.861318757460126" lon="6.853956220546414">
        <time>1970-01-01T00:00:00+00:00</time>
        <ele>3255.0</ele>
      </trkpt>
      <trkpt lat="45.86149734328016" lon="6.853986960728552">
        <time>1970-01-01T00:00:00+00:00</time>
        <ele>3243.0</ele>
      </trkpt>
      <trkpt lat="45.861515" lon="6.85399">
        <time>1970-01-01T00:00:00+00:00</time>
        <ele>3242.0</ele>
      </trkpt>
      <trkpt lat="45.861515" lon="6.85399">
        <time>1970-01-01T00:00:00+00:00</time>
        <ele>3242.0</ele>
      </trkpt>
      <trkpt lat="45.86169178271677" lon="6.854037605243961">
        <time>1970-01-01T00:00:00+00:00</time>
        <ele>3230.0</ele>
      </trkpt>
      <trkpt lat="45.861868565433525" lon="6.854085210487922">
        <time>1970-01-01T00:00:00+00:00</time>
        <ele>3219.0</ele>
      </trkpt>
      <trkpt lat="45.862045348150296" lon="6.854132815731883">
        <time>1970-01-01T00:00:00+00:00</time>
        <ele>3210.0</ele>
      </trkpt>
      <trkpt lat="45.862202" lon="6.854175">
        <time>1970-01-01T00:00:00+00:00</time>
        <ele>3202.0</ele>
      </trkpt>
      <trkpt lat="45.862202" lon="6.854175">
        <time>1970-01-01T00:00:00+00:00</time>
        <ele>3202.0</ele>
      </trkpt>
      <trkpt lat="45.86237485754933" lon="6.8542463884731895">
        <time>1970-01-01T00:00:00+00:00</time>
        <ele>3192.0</ele>
      </trkpt>
      <trkpt lat="45.86254771509866" lon="6.854317776946379">
        <time>1970-01-01T00:00:00+00:00</time>
        <ele>3183.0</ele>
      </trkpt>
      <trkpt lat="45.86272057264797" lon="6.854389165419569">
        <time>1970-01-01T00:00:00+00:00</time>
        <ele>3175.0</ele>
      </trkpt>
      <trkpt lat="45.8628934301973" lon="6.854460553892759">
        <time>1970-01-01T00:00:00+00:00</time>
        <ele>3167.0</ele>
      </trkpt>
      <trkpt lat="45.863018" lon="6.854512">
        <time>1970-01-01T00:00:00+00:00</time>
        <ele>3162.0</ele>
      </trkpt>
      <trkpt lat="45.863018" lon="6.854512">
        <time>1970-01-01T00:00:00+00:00</time>
        <ele>3162.0</ele>
      </trkpt>
      <trkpt lat="45.86318465285477" lon="6.854609162151285">
        <time>1970-01-01T00:00:00+00:00</time>
        <ele>3155.0</ele>
      </trkpt>
      <trkpt lat="45.86335130570954" lon="6.854706324302571">
        <time>1970-01-01T00:00:00+00:00</time>
        <ele>3148.0</ele>
      </trkpt>
      <trkpt lat="45.863517958564316" lon="6.854803486453855">
        <time>1970-01-01T00:00:00+00:00</time>
        <ele>3142.0</ele>
      </trkpt>
      <trkpt lat="45.863684611419096" lon="6.85490064860514">
        <time>1970-01-01T00:00:00+00:00</time>
        <ele>3136.0</ele>
      </trkpt>
      <trkpt lat="45.863819" lon="6.854979">
        <time>1970-01-01T00:00:00+00:00</time>
        <ele>3132.0</ele>
      </trkpt>
      <trkpt lat="45.863819" lon="6.854979">
        <time>1970-01-01T00:00:00+00:00</time>
        <ele>3132.0</ele>
      </trkpt>
      <trkpt lat="45.863971560363424" lon="6.855115812196873">
        <time>1970-01-01T00:00:00+00:00</time>
        <ele>3126.0</ele>
      </trkpt>
      <trkpt lat="45.86412412072684" lon="6.855252624393744">
        <time>1970-01-01T00:00:00+00:00</time>
        <ele>3120.0</ele>
      </trkpt>
      <trkpt lat="45.86427668109026" lon="6.855389436590616">
        <time>1970-01-01T00:00:00+00:00</time>
        <ele>3114.0</ele>
      </trkpt>
      <trkpt lat="45.86442924145367" lon="6.855526248787488">
        <time>1970-01-01T00:00:00+00:00</time>
        <ele>3105.0</ele>
      </trkpt>
      <trkpt lat="45.86458180181709" lon="6.85566306098436">
        <time>1970-01-01T00:00:00+00:00</time>
        <ele>3096.0</ele>
      </trkpt>
      <trkpt lat="45.864594" lon="6.855674">
        <time>1970-01-01T00:00:00+00:00</time>
        <ele>3095.0</ele>
      </trkpt>
      <trkpt lat="45.864594" lon="6.855674">
        <time>1970-01-01T00:00:00+00:00</time>
        <ele>3095.0</ele>
      </trkpt>
      <trkpt lat="45.864712014010024" lon="6.85586892201657">
        <time>1970-01-01T00:00:00+00:00</time>
        <ele>3087.0</ele>
      </trkpt>
      <trkpt lat="45.864830028020066" lon="6.856063844033141">
        <time>1970-01-01T00:00:00+00:00</time>
        <ele>3080.0</ele>
      </trkpt>
      <trkpt lat="45.86494804203009" lon="6.85625876604971">
        <time>1970-01-01T00:00:00+00:00</time>
        <ele>3072.0</ele>
      </trkpt>
      <trkpt lat="45.86506605604012" lon="6.8564536880662805">
        <time>1970-01-01T00:00:00+00:00</time>
        <ele>3064.0</ele>
      </trkpt>
      <trkpt lat="45.865128" lon="6.856556">
        <time>1970-01-01T00:00:00+00:00</time>
        <ele>3061.0</ele>
      </trkpt>
      <trkpt lat="45.865128" lon="6.856556">
        <time>1970-01-01T00:00:00+00:00</time>
        <ele>3061.0</ele>
      </trkpt>
      <trkpt lat="45.865229412708814" lon="6.856769325218299">
        <time>1970-01-01T00:00:00+00:00</time>
        <ele>3055.0</ele>
      </trkpt>
      <trkpt lat="45.86533082541764" lon="6.856982650436598">
        <time>1970-01-01T00:00:00+00:00</time>
        <ele>3051.0</ele>
      </trkpt>
      <trkpt lat="45.86543223812646" lon="6.857195975654897">
        <time>1970-01-01T00:00:00+00:00</time>
        <ele>3044.0</ele>
      </trkpt>
      <trkpt lat="45.865524" lon="6.857389">
        <time>1970-01-01T00:00:00+00:00</time>
        <ele>3038.0</ele>
      </trkpt>
      <trkpt lat="45.865524" lon="6.857389">
        <time>1970-01-01T00:00:00+00:00</time>
        <ele>3038.0</ele>
      </trkpt>
      <trkpt lat="45.86560761093709" lon="6.8576176941826725">
        <time>1970-01-01T00:00:00+00:00</time>
        <ele>3032.0</ele>
      </trkpt>
      <trkpt lat="45.86569122187417" lon="6.857846388365344">
        <time>1970-01-01T00:00:00+00:00</time>
        <ele>3027.0</ele>
      </trkpt>
      <trkpt lat="45.865774832811255" lon="6.858075082548014">
        <time>1970-01-01T00:00:00+00:00</time>
        <ele>3023.0</ele>
      </trkpt>
      <trkpt lat="45.865858443748344" lon="6.858303776730686">
        <time>1970-01-01T00:00:00+00:00</time>
        <ele>3020.0</ele>
      </trkpt>
      <trkpt lat="45.865913" lon="6.858453">
        <time>1970-01-01T00:00:00+00:00</time>
        <ele>3017.0</ele>
      </trkpt>
      <trkpt lat="45.865913" lon="6.858453">
        <time>1970-01-01T00:00:00+00:00</time>
        <ele>3017.0</ele>
      </trkpt>
      <trkpt lat="45.86602905516778" lon="6.858650337251586">
        <time>1970-01-01T00:00:00+00:00</time>
        <ele>3011.0</ele>
      </trkpt>
      <trkpt lat="45.866145110335566" lon="6.858847674503172">
        <time>1970-01-01T00:00:00+00:00</time>
        <ele>3005.0</ele>
      </trkpt>
      <trkpt lat="45.866261165503346" lon="6.859045011754758">
        <time>1970-01-01T00:00:00+00:00</time>
        <ele>3001.0</ele>
      </trkpt>
      <trkpt lat="45.866377220671126" lon="6.859242349006344">
        <time>1970-01-01T00:00:00+00:00</time>
        <ele>2998.0</ele>
      </trkpt>
      <trkpt lat="45.866447" lon="6.859361">
        <time>1970-01-01T00:00:00+00:00</time>
        <ele>2998.0</ele>
      </trkpt>
      <trkpt lat="45.866447" lon="6.859361">
        <time>1970-01-01T00:00:00+00:00</time>
        <ele>2998.0</ele>
      </trkpt>
      <trkpt lat="45.86659719743706" lon="6.859503108200997">
        <time>1970-01-01T00:00:00+00:00</time>
        <ele>2993.0</ele>
      </trkpt>
      <trkpt lat="45.86674739487411" lon="6.859645216401993">
        <time>1970-01-01T00:00:00+00:00</time>
        <ele>2989.0</ele>
      </trkpt>
      <trkpt lat="45.86689759231116" lon="6.859787324602989">
        <time>1970-01-01T00:00:00+00:00</time>
        <ele>2985.0</ele>
      </trkpt>
      <trkpt lat="45.86704778974821" lon="6.859929432803986">
        <time>1970-01-01T00:00:00+00:00</time>
        <ele>2980.0</ele>
      </trkpt>
      <trkpt lat="45.867134" lon="6.860011">
        <time>1970-01-01T00:00:00+00:00</time>
        <ele>2976.0</ele>
      </trkpt>
      <trkpt lat="45.867134" lon="6.860011">
        <time>1970-01-01T00:00:00+00:00</time>
        <ele>2976.0</ele>
      </trkpt>
      <trkpt lat="45.867302491500084" lon="6.860101393412882">
        <time>1970-01-01T00:00:00+00:00</time>
        <ele>2967.0</ele>
      </trkpt>
      <trkpt lat="45.86747098300017" lon="6.860191786825764">
        <time>1970-01-01T00:00:00+00:00</time>
        <ele>2959.0</ele>
      </trkpt>
      <trkpt lat="45.86763947450025" lon="6.860282180238647">
        <time>1970-01-01T00:00:00+00:00</time>
        <ele>2952.0</ele>
      </trkpt>
      <trkpt lat="45.867807966000335" lon="6.860372573651528">
        <time>1970-01-01T00:00:00+00:00</time>
        <ele>2945.0</ele>
      </trkpt>
      <trkpt lat="45.867874" lon="6.860408">
        <time>1970-01-01T00:00:00+00:00</time>
        <ele>2940.0</ele>
      </trkpt>
      <trkpt lat="45.867874" lon="6.860408">
        <time>1970-01-01T00:00:00+00:00</time>
        <ele>2940.0</ele>
      </trkpt>
      <trkpt lat="45.868053859846675" lon="6.860406177975505">
        <time>1970-01-01T00:00:00+00:00</time>
        <ele>2924.0</ele>
      </trkpt>
      <trkpt lat="45.86823371969335" lon="6.860404355951008">
        <time>1970-01-01T00:00:00+00:00</time>
        <ele>2906.0</ele>
      </trkpt>
      <trkpt lat="45.868413579540025" lon="6.8604025339265124">
        <time>1970-01-01T00:00:00+00:00</time>
        <ele>2888.0</ele>
      </trkpt>
      <trkpt lat="45.868565" lon="6.860401">
        <time>1970-01-01T00:00:00+00:00</time>
        <ele>2875.0</ele>
      </trkpt>
      <trkpt lat="45.868565" lon="6.860401">
        <time>1970-01-01T00:00:00+00:00</time>
        <ele>2875.0</ele>
      </trkpt>
      <trkpt lat="45.868719682938966" lon="6.860269183234615">
        <time>1970-01-01T00:00:00+00:00</time>
        <ele>2862.0</ele>
      </trkpt>
      <trkpt lat="45.86887436587794" lon="6.860137366469228">
        <time>1970-01-01T00:00:00+00:00</time>
        <ele>2854.0</ele>
      </trkpt>
      <trkpt lat="45.86902904881692" lon="6.860005549703844">
        <time>1970-01-01T00:00:00+00:00</time>
        <ele>2847.0</ele>
      </trkpt>
      <trkpt lat="45.86918373175589" lon="6.859873732938458">
        <time>1970-01-01T00:00:00+00:00</time>
        <ele>2839.0</ele>
      </trkpt>
      <trkpt lat="45.869255" lon="6.859813">
        <time>1970-01-01T00:00:00+00:00</time>
        <ele>2834.0</ele>
      </trkpt>
      <trkpt lat="45.869255" lon="6.859813">
        <time>1970-01-01T00:00:00+00:00</time>
        <ele>2834.0</ele>
      </trkpt>
      <trkpt lat="45.86941076780929" lon="6.8596838434806635">
        <time>1970-01-01T00:00:00+00:00</time>
        <ele>2823.0</ele>
      </trkpt>
      <trkpt lat="45.86956653561858" lon="6.859554686961326">
        <time>1970-01-01T00:00:00+00:00</time>
        <ele>2811.0</ele>
      </trkpt>
      <trkpt lat="45.86972230342787" lon="6.859425530441989">
        <time>1970-01-01T00:00:00+00:00</time>
        <ele>2800.0</ele>
      </trkpt>
      <trkpt lat="45.86987807123715" lon="6.8592963739226525">
        <time>1970-01-01T00:00:00+00:00</time>
        <ele>2788.0</ele>
      </trkpt>
      <trkpt lat="45.869934" lon="6.85925">
        <time>1970-01-01T00:00:00+00:00</time>
        <ele>2783.0</ele>
      </trkpt>
      <trkpt lat="45.869934" lon="6.85925">
        <time>1970-01-01T00:00:00+00:00</time>
        <ele>2783.0</ele>
      </trkpt>
      <trkpt lat="45.87009387364415" lon="6.859131641609257">
        <time>1970-01-01T00:00:00+00:00</time>
        <ele>2770.0</ele>
      </trkpt>
      <trkpt lat="45.87025374728832" lon="6.8590132832185144">
        <time>1970-01-01T00:00:00+00:00</time>
        <ele>2762.0</ele>
      </trkpt>
      <trkpt lat="45.870413620932474" lon="6.858894924827771">
        <time>1970-01-01T00:00:00+00:00</time>
        <ele>2757.0</ele>
      </trkpt>
      <trkpt lat="45.87057349457663" lon="6.858776566437028">
        <time>1970-01-01T00:00:00+00:00</time>
        <ele>2753.0</ele>
      </trkpt>
      <trkpt lat="45.87073336822079" lon="6.8586582080462835">
        <time>1970-01-01T00:00:00+00:00</time>
        <ele>2749.0</ele>
      </trkpt>
      <trkpt lat="45.870735" lon="6.858657">
        <time>1970-01-01T00:00:00+00:00</time>
        <ele>2749.0</ele>
      </trkpt>
      <trkpt lat="45.870735" lon="6.858657">
        <time>1970-01-01T00:00:00+00:00</time>
        <ele>2749.0</ele>
      </trkpt>
      <trkpt lat="45.870911160804795" lon="6.858604848439709">
        <time>1970-01-01T00:00:00+00:00</time>
        <ele>2742.0</ele>
      </trkpt>
      <trkpt lat="45.87108732160959" lon="6.8585526968794195">
        <time>1970-01-01T00:00:00+00:00</time>
        <ele>2730.0</ele>
      </trkpt>
      <trkpt lat="45.87126348241439" lon="6.858500545319129">
        <time>1970-01-01T00:00:00+00:00</time>
        <ele>2716.0</ele>
      </trkpt>
      <trkpt lat="45.87143964321919" lon="6.858448393758839">
        <time>1970-01-01T00:00:00+00:00</time>
        <ele>2702.0</ele>
      </trkpt>
      <trkpt lat="45.87161580402398" lon="6.858396242198549">
        <time>1970-01-01T00:00:00+00:00</time>
        <ele>2689.0</ele>
      </trkpt>
      <trkpt lat="45.87162" lon="6.858395">
        <time>1970-01-01T00:00:00+00:00</time>
        <ele>2689.0</ele>
      </trkpt>
      <trkpt lat="45.87162" lon="6.858395">
        <time>1970-01-01T00:00:00+00:00</time>
        <ele>2689.0</ele>
      </trkpt>
      <trkpt lat="45.87179986220895" lon="6.858396251941129">
        <time>1970-01-01T00:00:00+00:00</time>
        <ele>2679.0</ele>
      </trkpt>
      <trkpt lat="45.8719797244179" lon="6.858397503882259">
        <time>1970-01-01T00:00:00+00:00</time>
        <ele>2667.0</ele>
      </trkpt>
      <trkpt lat="45.87215958662685" lon="6.858398755823389">
        <time>1970-01-01T00:00:00+00:00</time>
        <ele>2656.0</ele>
      </trkpt>
      <trkpt lat="45.8723394488358" lon="6.8584000077645175">
        <time>1970-01-01T00:00:00+00:00</time>
        <ele>2646.0</ele>
      </trkpt>
      <trkpt lat="45.872482" lon="6.858401">
        <time>1970-01-01T00:00:00+00:00</time>
        <ele>2638.0</ele>
      </trkpt>
      <trkpt lat="45.872482" lon="6.858401">
        <time>1970-01-01T00:00:00+00:00</time>
        <ele>2638.0</ele>
      </trkpt>
      <trkpt lat="45.872660614391386" lon="6.858431402449597">
        <time>1970-01-01T00:00:00+00:00</time>
        <ele>2632.0</ele>
      </trkpt>
      <trkpt lat="45.872839228782766" lon="6.8584618048991945">
        <time>1970-01-01T00:00:00+00:00</time>
        <ele>2627.0</ele>
      </trkpt>
      <trkpt lat="45.873017843174146" lon="6.858492207348791">
        <time>1970-01-01T00:00:00+00:00</time>
        <ele>2624.0</ele>
      </trkpt>
      <trkpt lat="45.87319645756553" lon="6.8585226097983885">
        <time>1970-01-01T00:00:00+00:00</time>
        <ele>2623.0</ele>
      </trkpt>
      <trkpt lat="45.87337507195691" lon="6.858553012247985">
        <time>1970-01-01T00:00:00+00:00</time>
        <ele>2623.0</ele>
      </trkpt>
      <trkpt lat="45.873516" lon="6.858577">
        <time>1970-01-01T00:00:00+00:00</time>
        <ele>2623.0</ele>
      </trkpt>
      <trkpt lat="45.873516" lon="6.858577">
        <time>1970-01-01T00:00:00+00:00</time>
        <ele>2623.0</ele>
      </trkpt>
      <trkpt lat="45.873678220163725" lon="6.85868858588562">
        <time>1970-01-01T00:00:00+00:00</time>
        <ele>2626.0</ele>
      </trkpt>
      <trkpt lat="45.87384044032747" lon="6.8588001717712395">
        <time>1970-01-01T00:00:00+00:00</time>
        <ele>2627.0</ele>
      </trkpt>
      <trkpt lat="45.8740026604912" lon="6.858911757656861">
        <time>1970-01-01T00:00:00+00:00</time>
        <ele>2626.0</ele>
      </trkpt>
      <trkpt lat="45.87416488065493" lon="6.85902334354248">
        <time>1970-01-01T00:00:00+00:00</time>
        <ele>2623.0</ele>
      </trkpt>
      <trkpt lat="45.87432710081866" lon="6.8591349294281">
        <time>1970-01-01T00:00:00+00:00</time>
        <ele>2620.0</ele>
      </trkpt>
      <trkpt lat="45.87448932098239" lon="6.859246515313719">
        <time>1970-01-01T00:00:00+00:00</time>
        <ele>2618.0</ele>
      </trkpt>
      <trkpt lat="45.874538" lon="6.85928">
        <time>1970-01-01T00:00:00+00:00</time>
        <ele>2618.0</ele>
      </trkpt>
      <trkpt lat="45.874538" lon="6.85928">
        <time>1970-01-01T00:00:00+00:00</time>
        <ele>2618.0</ele>
      </trkpt>
      <trkpt lat="45.87468312771699" lon="6.859432608527147">
        <time>1970-01-01T00:00:00+00:00</time>
        <ele>2615.0</ele>
      </trkpt>
      <trkpt lat="45.87482825543399" lon="6.8595852170542955">
        <time>1970-01-01T00:00:00+00:00</time>
        <ele>2614.0</ele>
      </trkpt>
      <trkpt lat="45.87497338315097" lon="6.859737825581441">
        <time>1970-01-01T00:00:00+00:00</time>
        <ele>2614.0</ele>
      </trkpt>
      <trkpt lat="45.87511851086797" lon="6.859890434108589">
        <time>1970-01-01T00:00:00+00:00</time>
        <ele>2615.0</ele>
      </trkpt>
      <trkpt lat="45.875217" lon="6.859994">
        <time>1970-01-01T00:00:00+00:00</time>
        <ele>2616.0</ele>
      </trkpt>
      <trkpt lat="45.875217" lon="6.859994">
        <time>1970-01-01T00:00:00+00:00</time>
        <ele>2616.0</ele>
      </trkpt>
      <trkpt lat="45.875322038296545" lon="6.860203714392062">
        <time>1970-01-01T00:00:00+00:00</time>
        <ele>2617.0</ele>
      </trkpt>
      <trkpt lat="45.875427076593084" lon="6.860413428784125">
        <time>1970-01-01T00:00:00+00:00</time>
        <ele>2617.0</ele>
      </trkpt>
      <trkpt lat="45.87553211488962" lon="6.860623143176188">
        <time>1970-01-01T00:00:00+00:00</time>
        <ele>2618.0</ele>
      </trkpt>
      <trkpt lat="45.87563715318617" lon="6.8608328575682505">
        <time>1970-01-01T00:00:00+00:00</time>
        <ele>2620.0</ele>
      </trkpt>
      <trkpt lat="45.875742191482715" lon="6.861042571960313">
        <time>1970-01-01T00:00:00+00:00</time>
        <ele>2619.0</ele>
      </trkpt>
      <trkpt lat="45.875797" lon="6.861152">
        <time>1970-01-01T00:00:00+00:00</time>
        <ele>2619.0</ele>
      </trkpt>
      <trkpt lat="45.875797" lon="6.861152">
        <time>1970-01-01T00:00:00+00:00</time>
        <ele>2619.0</ele>
      </trkpt>
      <trkpt lat="45.8758756568163" lon="6.861384333917995">
        <time>1970-01-01T00:00:00+00:00</time>
        <ele>2619.0</ele>
      </trkpt>
      <trkpt lat="45.87595431363259" lon="6.861616667835989">
        <time>1970-01-01T00:00:00+00:00</time>
        <ele>2618.0</ele>
      </trkpt>
      <trkpt lat="45.87603297044888" lon="6.861849001753985">
        <time>1970-01-01T00:00:00+00:00</time>
        <ele>2616.0</ele>
      </trkpt>
      <trkpt lat="45.87611162726518" lon="6.86208133567198">
        <time>1970-01-01T00:00:00+00:00</time>
        <ele>2615.0</ele>
      </trkpt>
      <trkpt lat="45.876190284081474" lon="6.862313669589975">
        <time>1970-01-01T00:00:00+00:00</time>
        <ele>2614.0</ele>
      </trkpt>
      <trkpt lat="45.87626894089777" lon="6.86254600350797">
        <time>1970-01-01T00:00:00+00:00</time>
        <ele>2613.0</ele>
      </trkpt>
      <trkpt lat="45.87634759771407" lon="6.862778337425965">
        <time>1970-01-01T00:00:00+00:00</time>
        <ele>2613.0</ele>
      </trkpt>
      <trkpt lat="45.876381" lon="6.862877">
        <time>1970-01-01T00:00:00+00:00</time>
        <ele>2613.0</ele>
      </trkpt>
      <trkpt lat="45.876381" lon="6.862877">
        <time>1970-01-01T00:00:00+00:00</time>
        <ele>2613.0</ele>
      </trkpt>
      <trkpt lat="45.87646373065285" lon="6.863106398344213">
        <time>1970-01-01T00:00:00+00:00</time>
        <ele>2613.0</ele>
      </trkpt>
      <trkpt lat="45.87654646130571" lon="6.863335796688425">
        <time>1970-01-01T00:00:00+00:00</time>
        <ele>2612.0</ele>
      </trkpt>
      <trkpt lat="45.87662919195856" lon="6.863565195032637">
        <time>1970-01-01T00:00:00+00:00</time>
        <ele>2610.0</ele>
      </trkpt>
      <trkpt lat="45.87671192261141" lon="6.863794593376849">
        <time>1970-01-01T00:00:00+00:00</time>
        <ele>2608.0</ele>
      </trkpt>
      <trkpt lat="45.87679465326426" lon="6.864023991721061">
        <time>1970-01-01T00:00:00+00:00</time>
        <ele>2606.0</ele>
      </trkpt>
      <trkpt lat="45.876808" lon="6.864061">
        <time>1970-01-01T00:00:00+00:00</time>
        <ele>2606.0</ele>
      </trkpt>
      <trkpt lat="45.876808" lon="6.864061">
        <time>1970-01-01T00:00:00+00:00</time>
        <ele>2606.0</ele>
      </trkpt>
      <trkpt lat="45.87690760872776" lon="6.864276116802261">
        <time>1970-01-01T00:00:00+00:00</time>
        <ele>2603.0</ele>
      </trkpt>
      <trkpt lat="45.877007217455535" lon="6.864491233604521">
        <time>1970-01-01T00:00:00+00:00</time>
        <ele>2599.0</ele>
      </trkpt>
      <trkpt lat="45.87710682618331" lon="6.864706350406781">
        <time>1970-01-01T00:00:00+00:00</time>
        <ele>2596.0</ele>
      </trkpt>
      <trkpt lat="45.87720643491107" lon="6.864921467209041">
        <time>1970-01-01T00:00:00+00:00</time>
        <ele>2592.0</ele>
      </trkpt>
      <trkpt lat="45.87730604363884" lon="6.865136584011301">
        <time>1970-01-01T00:00:00+00:00</time>
        <ele>2587.0</ele>
      </trkpt>
      <trkpt lat="45.87740565236661" lon="6.865351700813561">
        <time>1970-01-01T00:00:00+00:00</time>
        <ele>2584.0</ele>
      </trkpt>
      <trkpt lat="45.87750526109438" lon="6.8655668176158215">
        <time>1970-01-01T00:00:00+00:00</time>
        <ele>2582.0</ele>
      </trkpt>
      <trkpt lat="45.877541" lon="6.865644">
        <time>1970-01-01T00:00:00+00:00</time>
        <ele>2580.0</ele>
      </trkpt>
      <trkpt lat="45.877541" lon="6.865644">
        <time>1970-01-01T00:00:00+00:00</time>
        <ele>2580.0</ele>
      </trkpt>
      <trkpt lat="45.87764976785707" lon="6.865849763583274">
        <time>1970-01-01T00:00:00+00:00</time>
        <ele>2577.0</ele>
      </trkpt>
      <trkpt lat="45.87775853571415" lon="6.866055527166548">
        <time>1970-01-01T00:00:00+00:00</time>
        <ele>2574.0</ele>
      </trkpt>
      <trkpt lat="45.87786730357122" lon="6.866261290749823">
        <time>1970-01-01T00:00:00+00:00</time>
        <ele>2571.0</ele>
      </trkpt>
      <trkpt lat="45.87797607142829" lon="6.866467054333098">
        <time>1970-01-01T00:00:00+00:00</time>
        <ele>2568.0</ele>
      </trkpt>
      <trkpt lat="45.878084839285364" lon="6.866672817916372">
        <time>1970-01-01T00:00:00+00:00</time>
        <ele>2563.0</ele>
      </trkpt>
      <trkpt lat="45.878193607142435" lon="6.8668785814996465">
        <time>1970-01-01T00:00:00+00:00</time>
        <ele>2560.0</ele>
      </trkpt>
      <trkpt lat="45.878197" lon="6.866885">
        <time>1970-01-01T00:00:00+00:00</time>
        <ele>2560.0</ele>
      </trkpt>
      <trkpt lat="45.878197" lon="6.866885">
        <time>1970-01-01T00:00:00+00:00</time>
        <ele>2560.0</ele>
      </trkpt>
      <trkpt lat="45.87830982794143" lon="6.8670862049190395">
        <time>1970-01-01T00:00:00+00:00</time>
        <ele>2557.0</ele>
      </trkpt>
      <trkpt lat="45.87842265588285" lon="6.867287409838079">
        <time>1970-01-01T00:00:00+00:00</time>
        <ele>2554.0</ele>
      </trkpt>
      <trkpt lat="45.87853548382427" lon="6.867488614757118">
        <time>1970-01-01T00:00:00+00:00</time>
        <ele>2551.0</ele>
      </trkpt>
      <trkpt lat="45.878648311765694" lon="6.8676898196761575">
        <time>1970-01-01T00:00:00+00:00</time>
        <ele>2549.0</ele>
      </trkpt>
      <trkpt lat="45.878761139707116" lon="6.867891024595197">
        <time>1970-01-01T00:00:00+00:00</time>
        <ele>2546.0</ele>
      </trkpt>
      <trkpt lat="45.87887396764854" lon="6.868092229514237">
        <time>1970-01-01T00:00:00+00:00</time>
        <ele>2542.0</ele>
      </trkpt>
      <trkpt lat="45.878963" lon="6.868251">
        <time>1970-01-01T00:00:00+00:00</time>
        <ele>2540.0</ele>
      </trkpt>
      <trkpt lat="45.878963" lon="6.868251">
        <time>1970-01-01T00:00:00+00:00</time>
        <ele>2540.0</ele>
      </trkpt>
      <trkpt lat="45.87909482590951" lon="6.8684267678793525">
        <time>1970-01-01T00:00:00+00:00</time>
        <ele>2538.0</ele>
      </trkpt>
      <trkpt lat="45.87922665181903" lon="6.868602535758706">
        <time>1970-01-01T00:00:00+00:00</time>
        <ele>2536.0</ele>
      </trkpt>
      <trkpt lat="45.879358477728545" lon="6.8687783036380585">
        <time>1970-01-01T00:00:00+00:00</time>
        <ele>2533.0</ele>
      </trkpt>
      <trkpt lat="45.879490303638065" lon="6.868954071517411">
        <time>1970-01-01T00:00:00+00:00</time>
        <ele>2531.0</ele>
      </trkpt>
      <trkpt lat="45.87962212954758" lon="6.869129839396764">
        <time>1970-01-01T00:00:00+00:00</time>
        <ele>2530.0</ele>
      </trkpt>
      <trkpt lat="45.879707" lon="6.869243">
        <time>1970-01-01T00:00:00+00:00</time>
        <ele>2530.0</ele>
      </trkpt>
      <trkpt lat="45.879707" lon="6.869243">
        <time>1970-01-01T00:00:00+00:00</time>
        <ele>2530.0</ele>
      </trkpt>
      <trkpt lat="45.879836578631455" lon="6.869422185300098">
        <time>1970-01-01T00:00:00+00:00</time>
        <ele>2530.0</ele>
      </trkpt>
      <trkpt lat="45.8799661572629" lon="6.869601370600197">
        <time>1970-01-01T00:00:00+00:00</time>
        <ele>2529.0</ele>
      </trkpt>
      <trkpt lat="45.88009573589434" lon="6.869780555900295">
        <time>1970-01-01T00:00:00+00:00</time>
        <ele>2528.0</ele>
      </trkpt>
      <trkpt lat="45.88022531452579" lon="6.869959741200393">
        <time>1970-01-01T00:00:00+00:00</time>
        <ele>2528.0</ele>
      </trkpt>
      <trkpt lat="45.88035489315723" lon="6.870138926500491">
        <time>1970-01-01T00:00:00+00:00</time>
        <ele>2528.0</ele>
      </trkpt>
      <trkpt lat="45.88048447178868" lon="6.870318111800589">
        <time>1970-01-01T00:00:00+00:00</time>
        <ele>2530.0</ele>
      </trkpt>
      <trkpt lat="45.880569" lon="6.870435">
        <time>1970-01-01T00:00:00+00:00</time>
        <ele>2530.0</ele>
      </trkpt>
      <trkpt lat="45.880569" lon="6.870435">
        <time>1970-01-01T00:00:00+00:00</time>
        <ele>2530.0</ele>
      </trkpt>
      <trkpt lat="45.88069496399" lon="6.870619429675064">
        <time>1970-01-01T00:00:00+00:00</time>
        <ele>2529.0</ele>
      </trkpt>
      <trkpt lat="45.88082092798001" lon="6.8708038593501275">
        <time>1970-01-01T00:00:00+00:00</time>
        <ele>2526.0</ele>
      </trkpt>
      <trkpt lat="45.88094689197001" lon="6.870988289025191">
        <time>1970-01-01T00:00:00+00:00</time>
        <ele>2522.0</ele>
      </trkpt>
      <trkpt lat="45.881072855960014" lon="6.871172718700255">
        <time>1970-01-01T00:00:00+00:00</time>
        <ele>2522.0</ele>
      </trkpt>
      <trkpt lat="45.881198819950015" lon="6.871357148375319">
        <time>1970-01-01T00:00:00+00:00</time>
        <ele>2525.0</ele>
      </trkpt>
      <trkpt lat="45.88132478394002" lon="6.871541578050382">
        <time>1970-01-01T00:00:00+00:00</time>
        <ele>2536.0</ele>
      </trkpt>
      <trkpt lat="45.881336" lon="6.871558">
        <time>1970-01-01T00:00:00+00:00</time>
        <ele>2536.0</ele>
      </trkpt>
      <trkpt lat="45.881336" lon="6.871558">
        <time>1970-01-01T00:00:00+00:00</time>
        <ele>2536.0</ele>
      </trkpt>
      <trkpt lat="45.88148585000767" lon="6.871700901317803">
        <time>1970-01-01T00:00:00+00:00</time>
        <ele>2540.0</ele>
      </trkpt>
      <trkpt lat="45.881635700015345" lon="6.871843802635606">
        <time>1970-01-01T00:00:00+00:00</time>
        <ele>2544.0</ele>
      </trkpt>
      <trkpt lat="45.881785550023025" lon="6.87198670395341">
        <time>1970-01-01T00:00:00+00:00</time>
        <ele>2546.0</ele>
      </trkpt>
      <trkpt lat="45.8819354000307" lon="6.872129605271214">
        <time>1970-01-01T00:00:00+00:00</time>
        <ele>2545.0</ele>
      </trkpt>
      <trkpt lat="45.88208525003837" lon="6.872272506589017">
        <time>1970-01-01T00:00:00+00:00</time>
        <ele>2541.0</ele>
      </trkpt>
      <trkpt lat="45.88223510004605" lon="6.8724154079068205">
        <time>1970-01-01T00:00:00+00:00</time>
        <ele>2540.0</ele>
      </trkpt>
      <trkpt lat="45.882328" lon="6.872504">
        <time>1970-01-01T00:00:00+00:00</time>
        <ele>2542.0</ele>
      </trkpt>
      <trkpt lat="45.882328" lon="6.872504">
        <time>1970-01-01T00:00:00+00:00</time>
        <ele>2542.0</ele>
      </trkpt>
      <trkpt lat="45.88246739267769" lon="6.872667288565294">
        <time>1970-01-01T00:00:00+00:00</time>
        <ele>2547.0</ele>
      </trkpt>
      <trkpt lat="45.88260678535538" lon="6.872830577130588">
        <time>1970-01-01T00:00:00+00:00</time>
        <ele>2557.0</ele>
      </trkpt>
      <trkpt lat="45.882746178033074" lon="6.872993865695883">
        <time>1970-01-01T00:00:00+00:00</time>
        <ele>2559.0</ele>
      </trkpt>
      <trkpt lat="45.88288557071076" lon="6.873157154261177">
        <time>1970-01-01T00:00:00+00:00</time>
        <ele>2554.0</ele>
      </trkpt>
      <trkpt lat="45.88302496338845" lon="6.873320442826471">
        <time>1970-01-01T00:00:00+00:00</time>
        <ele>2549.0</ele>
      </trkpt>
      <trkpt lat="45.883133" lon="6.873447">
        <time>1970-01-01T00:00:00+00:00</time>
        <ele>2551.0</ele>
      </trkpt>
      <trkpt lat="45.883133" lon="6.873447">
        <time>1970-01-01T00:00:00+00:00</time>
        <ele>2551.0</ele>
      </trkpt>
      <trkpt lat="45.88327338719293" lon="6.87360852355469">
        <time>1970-01-01T00:00:00+00:00</time>
        <ele>2550.0</ele>
      </trkpt>
      <trkpt lat="45.88341377438586" lon="6.87377004710938">
        <time>1970-01-01T00:00:00+00:00</time>
        <ele>2546.0</ele>
      </trkpt>
      <trkpt lat="45.883554161578786" lon="6.8739315706640705">
        <time>1970-01-01T00:00:00+00:00</time>
        <ele>2543.0</ele>
      </trkpt>
      <trkpt lat="45.883694548771714" lon="6.874093094218761">
        <time>1970-01-01T00:00:00+00:00</time>
        <ele>2546.0</ele>
      </trkpt>
      <trkpt lat="45.88383493596464" lon="6.874254617773451">
        <time>1970-01-01T00:00:00+00:00</time>
        <ele>2551.0</ele>
      </trkpt>
      <trkpt lat="45.88397532315757" lon="6.87441614132814">
        <time>1970-01-01T00:00:00+00:00</time>
        <ele>2556.0</ele>
      </trkpt>
      <trkpt lat="45.88411571035051" lon="6.874577664882832">
        <time>1970-01-01T00:00:00+00:00</time>
        <ele>2561.0</ele>
      </trkpt>
      <trkpt lat="45.884209" lon="6.874685">
        <time>1970-01-01T00:00:00+00:00</time>
        <ele>2564.0</ele>
      </trkpt>
      <trkpt lat="45.884209" lon="6.874685">
        <time>1970-01-01T00:00:00+00:00</time>
        <ele>2564.0</ele>
      </trkpt>
      <trkpt lat="45.884333885558775" lon="6.874870948895328">
        <time>1970-01-01T00:00:00+00:00</time>
        <ele>2571.0</ele>
      </trkpt>
      <trkpt lat="45.884458771117565" lon="6.875056897790655">
        <time>1970-01-01T00:00:00+00:00</time>
        <ele>2577.0</ele>
      </trkpt>
      <trkpt lat="45.88458365667634" lon="6.875242846685982">
        <time>1970-01-01T00:00:00+00:00</time>
        <ele>2580.0</ele>
      </trkpt>
      <trkpt lat="45.88470854223512" lon="6.875428795581309">
        <time>1970-01-01T00:00:00+00:00</time>
        <ele>2581.0</ele>
      </trkpt>
      <trkpt lat="45.88483342779389" lon="6.8756147444766365">
        <time>1970-01-01T00:00:00+00:00</time>
        <ele>2579.0</ele>
      </trkpt>
      <trkpt lat="45.884888" lon="6.875696">
        <time>1970-01-01T00:00:00+00:00</time>
        <ele>2579.0</ele>
      </trkpt>
      <trkpt lat="45.884888" lon="6.875696">
        <time>1970-01-01T00:00:00+00:00</time>
        <ele>2579.0</ele>
      </trkpt>
      <trkpt lat="45.88498796261193" lon="6.875910808546088">
        <time>1970-01-01T00:00:00+00:00</time>
        <ele>2579.0</ele>
      </trkpt>
      <trkpt lat="45.88508792522387" lon="6.8761256170921765">
        <time>1970-01-01T00:00:00+00:00</time>
        <ele>2582.0</ele>
      </trkpt>
      <trkpt lat="45.8851878878358" lon="6.876340425638265">
        <time>1970-01-01T00:00:00+00:00</time>
        <ele>2586.0</ele>
      </trkpt>
      <trkpt lat="45.88528785044774" lon="6.876555234184353">
        <time>1970-01-01T00:00:00+00:00</time>
        <ele>2593.0</ele>
      </trkpt>
      <trkpt lat="45.885338" lon="6.876663">
        <time>1970-01-01T00:00:00+00:00</time>
        <ele>2597.0</ele>
      </trkpt>
      <trkpt lat="45.885338" lon="6.876663">
        <time>1970-01-01T00:00:00+00:00</time>
        <ele>2597.0</ele>
      </trkpt>
      <trkpt lat="45.88546633866895" lon="6.876844035304238">
        <time>1970-01-01T00:00:00+00:00</time>
        <ele>2597.0</ele>
      </trkpt>
      <trkpt lat="45.885594677337906" lon="6.877025070608475">
        <time>1970-01-01T00:00:00+00:00</time>
        <ele>2594.0</ele>
      </trkpt>
      <trkpt lat="45.885723016006864" lon="6.8772061059127125">
        <time>1970-01-01T00:00:00+00:00</time>
        <ele>2593.0</ele>
      </trkpt>
      <trkpt lat="45.885851354675815" lon="6.877387141216952">
        <time>1970-01-01T00:00:00+00:00</time>
        <ele>2593.0</ele>
      </trkpt>
      <trkpt lat="45.88597969334477" lon="6.87756817652119">
        <time>1970-01-01T00:00:00+00:00</time>
        <ele>2594.0</ele>
      </trkpt>
      <trkpt lat="45.885998" lon="6.877594">
        <time>1970-01-01T00:00:00+00:00</time>
        <ele>2594.0</ele>
      </trkpt>
      <trkpt lat="45.885998" lon="6.877594">
        <time>1970-01-01T00:00:00+00:00</time>
        <ele>2594.0</ele>
      </trkpt>
      <trkpt lat="45.88610774657115" lon="6.877798719565423">
        <time>1970-01-01T00:00:00+00:00</time>
        <ele>2595.0</ele>
      </trkpt>
      <trkpt lat="45.88621749314231" lon="6.878003439130847">
        <time>1970-01-01T00:00:00+00:00</time>
        <ele>2596.0</ele>
      </trkpt>
      <trkpt lat="45.88632723971347" lon="6.878208158696269">
        <time>1970-01-01T00:00:00+00:00</time>
        <ele>2596.0</ele>
      </trkpt>
      <trkpt lat="45.88643698628462" lon="6.878412878261694">
        <time>1970-01-01T00:00:00+00:00</time>
        <ele>2595.0</ele>
      </trkpt>
      <trkpt lat="45.88654673285578" lon="6.878617597827115">
        <time>1970-01-01T00:00:00+00:00</time>
        <ele>2592.0</ele>
      </trkpt>
      <trkpt lat="45.88657" lon="6.878661">
        <time>1970-01-01T00:00:00+00:00</time>
        <ele>2591.0</ele>
      </trkpt>
      <trkpt lat="45.88657" lon="6.878661">
        <time>1970-01-01T00:00:00+00:00</time>
        <ele>2591.0</ele>
      </trkpt>
      <trkpt lat="45.886701485013205" lon="6.878837318011984">
        <time>1970-01-01T00:00:00+00:00</time>
        <ele>2590.0</ele>
      </trkpt>
      <trkpt lat="45.88683297002642" lon="6.879013636023965">
        <time>1970-01-01T00:00:00+00:00</time>
        <ele>2589.0</ele>
      </trkpt>
      <trkpt lat="45.88696445503963" lon="6.879189954035948">
        <time>1970-01-01T00:00:00+00:00</time>
        <ele>2588.0</ele>
      </trkpt>
      <trkpt lat="45.88709594005284" lon="6.879366272047931">
        <time>1970-01-01T00:00:00+00:00</time>
        <ele>2582.0</ele>
      </trkpt>
      <trkpt lat="45.88722742506605" lon="6.8795425900599145">
        <time>1970-01-01T00:00:00+00:00</time>
        <ele>2576.0</ele>
      </trkpt>
      <trkpt lat="45.887268" lon="6.879597">
        <time>1970-01-01T00:00:00+00:00</time>
        <ele>2575.0</ele>
      </trkpt>
      <trkpt lat="45.887268" lon="6.879597">
        <time>1970-01-01T00:00:00+00:00</time>
        <ele>2575.0</ele>
      </trkpt>
      <trkpt lat="45.88736043545129" lon="6.879818665596796">
        <time>1970-01-01T00:00:00+00:00</time>
        <ele>2574.0</ele>
      </trkpt>
      <trkpt lat="45.88745287090259" lon="6.880040331193591">
        <time>1970-01-01T00:00:00+00:00</time>
        <ele>2575.0</ele>
      </trkpt>
      <trkpt lat="45.887545306353886" lon="6.880261996790385">
        <time>1970-01-01T00:00:00+00:00</time>
        <ele>2575.0</ele>
      </trkpt>
      <trkpt lat="45.887637741805186" lon="6.88048366238718">
        <time>1970-01-01T00:00:00+00:00</time>
        <ele>2573.0</ele>
      </trkpt>
      <trkpt lat="45.88768" lon="6.880585">
        <time>1970-01-01T00:00:00+00:00</time>
        <ele>2571.0</ele>
      </trkpt>
      <trkpt lat="45.88768" lon="6.880585">
        <time>1970-01-01T00:00:00+00:00</time>
        <ele>2571.0</ele>
      </trkpt>
      <trkpt lat="45.88773290482389" lon="6.880831970445179">
        <time>1970-01-01T00:00:00+00:00</time>
        <ele>2567.0</ele>
      </trkpt>
      <trkpt lat="45.887785809647795" lon="6.881078940890359">
        <time>1970-01-01T00:00:00+00:00</time>
        <ele>2565.0</ele>
      </trkpt>
      <trkpt lat="45.887838714471684" lon="6.881325911335538">
        <time>1970-01-01T00:00:00+00:00</time>
        <ele>2565.0</ele>
      </trkpt>
      <trkpt lat="45.88789161929557" lon="6.881572881780718">
        <time>1970-01-01T00:00:00+00:00</time>
        <ele>2567.0</ele>
      </trkpt>
      <trkpt lat="45.887897" lon="6.881598">
        <time>1970-01-01T00:00:00+00:00</time>
        <ele>2568.0</ele>
      </trkpt>
      <trkpt lat="45.887897" lon="6.881598">
        <time>1970-01-01T00:00:00+00:00</time>
        <ele>2568.0</ele>
      </trkpt>
      <trkpt lat="45.887931715013416" lon="6.881851543580135">
        <time>1970-01-01T00:00:00+00:00</time>
        <ele>2571.0</ele>
      </trkpt>
      <trkpt lat="45.887966430026836" lon="6.882105087160268">
        <time>1970-01-01T00:00:00+00:00</time>
        <ele>2572.0</ele>
      </trkpt>
      <trkpt lat="45.88800114504025" lon="6.882358630740402">
        <time>1970-01-01T00:00:00+00:00</time>
        <ele>2572.0</ele>
      </trkpt>
      <trkpt lat="45.88803586005367" lon="6.882612174320536">
        <time>1970-01-01T00:00:00+00:00</time>
        <ele>2570.0</ele>
      </trkpt>
      <trkpt lat="45.888065" lon="6.882825">
        <time>1970-01-01T00:00:00+00:00</time>
        <ele>2568.0</ele>
      </trkpt>
      <trkpt lat="45.888065" lon="6.882825">
        <time>1970-01-01T00:00:00+00:00</time>
        <ele>2568.0</ele>
      </trkpt>
      <trkpt lat="45.88808211560357" lon="6.883082230158033">
        <time>1970-01-01T00:00:00+00:00</time>
        <ele>2566.0</ele>
      </trkpt>
      <trkpt lat="45.88809923120714" lon="6.883339460316066">
        <time>1970-01-01T00:00:00+00:00</time>
        <ele>2567.0</ele>
      </trkpt>
      <trkpt lat="45.88811634681071" lon="6.883596690474099">
        <time>1970-01-01T00:00:00+00:00</time>
        <ele>2573.0</ele>
      </trkpt>
      <trkpt lat="45.88813346241429" lon="6.883853920632132">
        <time>1970-01-01T00:00:00+00:00</time>
        <ele>2581.0</ele>
      </trkpt>
      <trkpt lat="45.888134" lon="6.883862">
        <time>1970-01-01T00:00:00+00:00</time>
        <ele>2581.0</ele>
      </trkpt>
      <trkpt lat="45.888134" lon="6.883862">
        <time>1970-01-01T00:00:00+00:00</time>
        <ele>2581.0</ele>
      </trkpt>
      <trkpt lat="45.88817637063937" lon="6.884113131088852">
        <time>1970-01-01T00:00:00+00:00</time>
        <ele>2588.0</ele>
      </trkpt>
      <trkpt lat="45.88821874127875" lon="6.884364262177703">
        <time>1970-01-01T00:00:00+00:00</time>
        <ele>2594.0</ele>
      </trkpt>
      <trkpt lat="45.88826111191813" lon="6.8846153932665555">
        <time>1970-01-01T00:00:00+00:00</time>
        <ele>2596.0</ele>
      </trkpt>
      <trkpt lat="45.888271" lon="6.884674">
        <time>1970-01-01T00:00:00+00:00</time>
        <ele>2594.0</ele>
      </trkpt>
      <trkpt lat="45.888271" lon="6.884674">
        <time>1970-01-01T00:00:00+00:00</time>
        <ele>2594.0</ele>
      </trkpt>
      <trkpt lat="45.888393766699906" lon="6.884862851753246">
        <time>1970-01-01T00:00:00+00:00</time>
        <ele>2576.0</ele>
      </trkpt>
      <trkpt lat="45.888516533399795" lon="6.885051703506492">
        <time>1970-01-01T00:00:00+00:00</time>
        <ele>2557.0</ele>
      </trkpt>
      <trkpt lat="45.8886393000997" lon="6.885240555259737">
        <time>1970-01-01T00:00:00+00:00</time>
        <ele>2543.0</ele>
      </trkpt>
      <trkpt lat="45.888741" lon="6.885397">
        <time>1970-01-01T00:00:00+00:00</time>
        <ele>2532.0</ele>
      </trkpt>
      <trkpt lat="45.888741" lon="6.885397">
        <time>1970-01-01T00:00:00+00:00</time>
        <ele>2532.0</ele>
      </trkpt>
      <trkpt lat="45.88890392038582" lon="6.885506491171836">
        <time>1970-01-01T00:00:00+00:00</time>
        <ele>2515.0</ele>
      </trkpt>
      <trkpt lat="45.88906684077163" lon="6.885615982343673">
        <time>1970-01-01T00:00:00+00:00</time>
        <ele>2501.0</ele>
      </trkpt>
      <trkpt lat="45.88922976115745" lon="6.885725473515508">
        <time>1970-01-01T00:00:00+00:00</time>
        <ele>2491.0</ele>
      </trkpt>
      <trkpt lat="45.88939268154326" lon="6.885834964687344">
        <time>1970-01-01T00:00:00+00:00</time>
        <ele>2482.0</ele>
      </trkpt>
      <trkpt lat="45.889555601929075" lon="6.88594445585918">
        <time>1970-01-01T00:00:00+00:00</time>
        <ele>2474.0</ele>
      </trkpt>
      <trkpt lat="45.88971852231489" lon="6.886053947031014">
        <time>1970-01-01T00:00:00+00:00</time>
        <ele>2465.0</ele>
      </trkpt>
      <trkpt lat="45.889793" lon="6.886104">
        <time>1970-01-01T00:00:00+00:00</time>
        <ele>2461.0</ele>
      </trkpt>
      <trkpt lat="45.889793" lon="6.886104">
        <time>1970-01-01T00:00:00+00:00</time>
        <ele>2461.0</ele>
      </trkpt>
      <trkpt lat="45.88996434440101" lon="6.886182590425865">
        <time>1970-01-01T00:00:00+00:00</time>
        <ele>2451.0</ele>
      </trkpt>
      <trkpt lat="45.89013568880201" lon="6.886261180851731">
        <time>1970-01-01T00:00:00+00:00</time>
        <ele>2440.0</ele>
      </trkpt>
      <trkpt lat="45.89030703320303" lon="6.886339771277597">
        <time>1970-01-01T00:00:00+00:00</time>
        <ele>2428.0</ele>
      </trkpt>
      <trkpt lat="45.89047837760403" lon="6.8864183617034636">
        <time>1970-01-01T00:00:00+00:00</time>
        <ele>2415.0</ele>
      </trkpt>
      <trkpt lat="45.890649722005044" lon="6.886496952129328">
        <time>1970-01-01T00:00:00+00:00</time>
        <ele>2404.0</ele>
      </trkpt>
      <trkpt lat="45.890785" lon="6.886559">
        <time>1970-01-01T00:00:00+00:00</time>
        <ele>2399.0</ele>
      </trkpt>
      <trkpt lat="45.890785" lon="6.886559">
        <time>1970-01-01T00:00:00+00:00</time>
        <ele>2399.0</ele>
      </trkpt>
      <trkpt lat="45.89095694492392" lon="6.8866348365040855">
        <time>1970-01-01T00:00:00+00:00</time>
        <ele>2395.0</ele>
      </trkpt>
      <trkpt lat="45.891128889847835" lon="6.886710673008171">
        <time>1970-01-01T00:00:00+00:00</time>
        <ele>2390.0</ele>
      </trkpt>
      <trkpt lat="45.89130083477175" lon="6.886786509512256">
        <time>1970-01-01T00:00:00+00:00</time>
        <ele>2387.0</ele>
      </trkpt>
      <trkpt lat="45.89147277969567" lon="6.886862346016342">
        <time>1970-01-01T00:00:00+00:00</time>
        <ele>2385.0</ele>
      </trkpt>
      <trkpt lat="45.89164472461958" lon="6.886938182520426">
        <time>1970-01-01T00:00:00+00:00</time>
        <ele>2384.0</ele>
      </trkpt>
      <trkpt lat="45.891816669543495" lon="6.887014019024512">
        <time>1970-01-01T00:00:00+00:00</time>
        <ele>2383.0</ele>
      </trkpt>
      <trkpt lat="45.891988614467415" lon="6.887089855528598">
        <time>1970-01-01T00:00:00+00:00</time>
        <ele>2382.0</ele>
      </trkpt>
      <trkpt lat="45.892160559391336" lon="6.887165692032684">
        <time>1970-01-01T00:00:00+00:00</time>
        <ele>2381.0</ele>
      </trkpt>
      <trkpt lat="45.892193" lon="6.88718">
        <time>1970-01-01T00:00:00+00:00</time>
        <ele>2381.0</ele>
      </trkpt>
      <trkpt lat="45.892193" lon="6.88718">
        <time>1970-01-01T00:00:00+00:00</time>
        <ele>2381.0</ele>
      </trkpt>
      <trkpt lat="45.892356838695456" lon="6.887286632044535">
        <time>1970-01-01T00:00:00+00:00</time>
        <ele>2380.0</ele>
      </trkpt>
      <trkpt lat="45.892520677390905" lon="6.88739326408907">
        <time>1970-01-01T00:00:00+00:00</time>
        <ele>2380.0</ele>
      </trkpt>
      <trkpt lat="45.89268451608636" lon="6.887499896133605">
        <time>1970-01-01T00:00:00+00:00</time>
        <ele>2377.0</ele>
      </trkpt>
      <trkpt lat="45.89284835478182" lon="6.887606528178139">
        <time>1970-01-01T00:00:00+00:00</time>
        <ele>2374.0</ele>
      </trkpt>
      <trkpt lat="45.89301219347727" lon="6.887713160222676">
        <time>1970-01-01T00:00:00+00:00</time>
        <ele>2370.0</ele>
      </trkpt>
      <trkpt lat="45.893176032172725" lon="6.88781979226721">
        <time>1970-01-01T00:00:00+00:00</time>
        <ele>2368.0</ele>
      </trkpt>
      <trkpt lat="45.89333" lon="6.88792">
        <time>1970-01-01T00:00:00+00:00</time>
        <ele>2367.0</ele>
      </trkpt>
      <trkpt lat="45.89333" lon="6.88792">
        <time>1970-01-01T00:00:00+00:00</time>
        <ele>2367.0</ele>
      </trkpt>
      <trkpt lat="45.89350704084378" lon="6.887965610522466">
        <time>1970-01-01T00:00:00+00:00</time>
        <ele>2366.0</ele>
      </trkpt>
      <trkpt lat="45.89368408168755" lon="6.8880112210449305">
        <time>1970-01-01T00:00:00+00:00</time>
        <ele>2362.0</ele>
      </trkpt>
      <trkpt lat="45.89386112253134" lon="6.888056831567396">
        <time>1970-01-01T00:00:00+00:00</time>
        <ele>2358.0</ele>
      </trkpt>
      <trkpt lat="45.89403816337512" lon="6.8881024420898616">
        <time>1970-01-01T00:00:00+00:00</time>
        <ele>2356.0</ele>
      </trkpt>
      <trkpt lat="45.894215" lon="6.888148">
        <time>1970-01-01T00:00:00+00:00</time>
        <ele>2356.0</ele>
      </trkpt>
      <trkpt lat="45.894215" lon="6.888148">
        <time>1970-01-01T00:00:00+00:00</time>
        <ele>2356.0</ele>
      </trkpt>
      <trkpt lat="45.89439456101799" lon="6.888163001884537">
        <time>1970-01-01T00:00:00+00:00</time>
        <ele>2356.0</ele>
      </trkpt>
      <trkpt lat="45.89457412203597" lon="6.888178003769072">
        <time>1970-01-01T00:00:00+00:00</time>
        <ele>2354.0</ele>
      </trkpt>
      <trkpt lat="45.89475368305395" lon="6.888193005653608">
        <time>1970-01-01T00:00:00+00:00</time>
        <ele>2352.0</ele>
      </trkpt>
      <trkpt lat="45.89493324407193" lon="6.888208007538144">
        <time>1970-01-01T00:00:00+00:00</time>
        <ele>2354.0</ele>
      </trkpt>
      <trkpt lat="45.894993" lon="6.888213">
        <time>1970-01-01T00:00:00+00:00</time>
        <ele>2355.0</ele>
      </trkpt>
      <trkpt lat="45.894993" lon="6.888213">
        <time>1970-01-01T00:00:00+00:00</time>
        <ele>2355.0</ele>
      </trkpt>
      <trkpt lat="45.8951586097716" lon="6.888313830439169">
        <time>1970-01-01T00:00:00+00:00</time>
        <ele>2363.0</ele>
      </trkpt>
      <trkpt lat="45.895287" lon="6.888392">
        <time>1970-01-01T00:00:00+00:00</time>
        <ele>2371.0</ele>
      </trkpt>
      <trkpt lat="45.895287" lon="6.888392">
        <time>1970-01-01T00:00:00+00:00</time>
        <ele>2371.0</ele>
      </trkpt>
      <trkpt lat="45.89544782775762" lon="6.888507713960397">
        <time>1970-01-01T00:00:00+00:00</time>
        <ele>2378.0</ele>
      </trkpt>
      <trkpt lat="45.89560865551523" lon="6.888623427920795">
        <time>1970-01-01T00:00:00+00:00</time>
        <ele>2379.0</ele>
      </trkpt>
      <trkpt lat="45.89576948327285" lon="6.8887391418811905">
        <time>1970-01-01T00:00:00+00:00</time>
        <ele>2377.0</ele>
      </trkpt>
      <trkpt lat="45.895836" lon="6.888787">
        <time>1970-01-01T00:00:00+00:00</time>
        <ele>2376.0</ele>
      </trkpt>
      <trkpt lat="45.895836" lon="6.888787">
        <time>1970-01-01T00:00:00+00:00</time>
        <ele>2376.0</ele>
      </trkpt>
      <trkpt lat="45.895998113957944" lon="6.888898948400927">
        <time>1970-01-01T00:00:00+00:00</time>
        <ele>2374.0</ele>
      </trkpt>
      <trkpt lat="45.8961602279159" lon="6.889010896801853">
        <time>1970-01-01T00:00:00+00:00</time>
        <ele>2371.0</ele>
      </trkpt>
      <trkpt lat="45.89632234187384" lon="6.889122845202779">
        <time>1970-01-01T00:00:00+00:00</time>
        <ele>2369.0</ele>
      </trkpt>
      <trkpt lat="45.89645" lon="6.889211">
        <time>1970-01-01T00:00:00+00:00</time>
        <ele>2369.0</ele>
      </trkpt>
      <trkpt lat="45.89645" lon="6.889211">
        <time>1970-01-01T00:00:00+00:00</time>
        <ele>2369.0</ele>
      </trkpt>
      <trkpt lat="45.896629791396336" lon="6.889218358718655">
        <time>1970-01-01T00:00:00+00:00</time>
        <ele>2367.0</ele>
      </trkpt>
      <trkpt lat="45.89680958279267" lon="6.889225717437311">
        <time>1970-01-01T00:00:00+00:00</time>
        <ele>2368.0</ele>
      </trkpt>
      <trkpt lat="45.896989374189005" lon="6.889233076155966">
        <time>1970-01-01T00:00:00+00:00</time>
        <ele>2370.0</ele>
      </trkpt>
      <trkpt lat="45.89716916558534" lon="6.889240434874622">
        <time>1970-01-01T00:00:00+00:00</time>
        <ele>2372.0</ele>
      </trkpt>
      <trkpt lat="45.89734895698168" lon="6.8892477935932765">
        <time>1970-01-01T00:00:00+00:00</time>
        <ele>2371.0</ele>
      </trkpt>
      <trkpt lat="45.897354" lon="6.889248">
        <time>1970-01-01T00:00:00+00:00</time>
        <ele>2371.0</ele>
      </trkpt>
      <trkpt lat="45.897354" lon="6.889248">
        <time>1970-01-01T00:00:00+00:00</time>
        <ele>2371.0</ele>
      </trkpt>
      <trkpt lat="45.89752520050568" lon="6.889168754351082">
        <time>1970-01-01T00:00:00+00:00</time>
        <ele>2365.0</ele>
      </trkpt>
      <trkpt lat="45.897696401011366" lon="6.889089508702163">
        <time>1970-01-01T00:00:00+00:00</time>
        <ele>2362.0</ele>
      </trkpt>
      <trkpt lat="45.89786760151705" lon="6.889010263053246">
        <time>1970-01-01T00:00:00+00:00</time>
        <ele>2362.0</ele>
      </trkpt>
      <trkpt lat="45.89803880202273" lon="6.888931017404327">
        <time>1970-01-01T00:00:00+00:00</time>
        <ele>2365.0</ele>
      </trkpt>
      <trkpt lat="45.898041" lon="6.88893">
        <time>1970-01-01T00:00:00+00:00</time>
        <ele>2365.0</ele>
      </trkpt>
      <trkpt lat="45.898041" lon="6.88893">
        <time>1970-01-01T00:00:00+00:00</time>
        <ele>2365.0</ele>
      </trkpt>
      <trkpt lat="45.89820115144551" lon="6.888812359539191">
        <time>1970-01-01T00:00:00+00:00</time>
        <ele>2365.0</ele>
      </trkpt>
      <trkpt lat="45.89836130289102" lon="6.888694719078381">
        <time>1970-01-01T00:00:00+00:00</time>
        <ele>2365.0</ele>
      </trkpt>
      <trkpt lat="45.89852145433653" lon="6.888577078617572">
        <time>1970-01-01T00:00:00+00:00</time>
        <ele>2364.0</ele>
      </trkpt>
      <trkpt lat="45.89864" lon="6.88849">
        <time>1970-01-01T00:00:00+00:00</time>
        <ele>2362.0</ele>
      </trkpt>
      <trkpt lat="45.89864" lon="6.88849">
        <time>1970-01-01T00:00:00+00:00</time>
        <ele>2362.0</ele>
      </trkpt>
      <trkpt lat="45.89879375315208" lon="6.888355885905999">
        <time>1970-01-01T00:00:00+00:00</time>
        <ele>2357.0</ele>
      </trkpt>
      <trkpt lat="45.89894750630417" lon="6.888221771811997">
        <time>1970-01-01T00:00:00+00:00</time>
        <ele>2349.0</ele>
      </trkpt>
      <trkpt lat="45.899101259456245" lon="6.888087657717996">
        <time>1970-01-01T00:00:00+00:00</time>
        <ele>2342.0</ele>
      </trkpt>
      <trkpt lat="45.899235" lon="6.887971">
        <time>1970-01-01T00:00:00+00:00</time>
        <ele>2338.0</ele>
      </trkpt>
      <trkpt lat="45.899235" lon="6.887971">
        <time>1970-01-01T00:00:00+00:00</time>
        <ele>2338.0</ele>
      </trkpt>
      <trkpt lat="45.899378011364156" lon="6.8878142543127625">
        <time>1970-01-01T00:00:00+00:00</time>
        <ele>2338.0</ele>
      </trkpt>
      <trkpt lat="45.89952102272831" lon="6.887657508625523">
        <time>1970-01-01T00:00:00+00:00</time>
        <ele>2340.0</ele>
      </trkpt>
      <trkpt lat="45.89966403409247" lon="6.887500762938285">
        <time>1970-01-01T00:00:00+00:00</time>
        <ele>2342.0</ele>
      </trkpt>
      <trkpt lat="45.89980704545662" lon="6.8873440172510465">
        <time>1970-01-01T00:00:00+00:00</time>
        <ele>2337.0</ele>
      </trkpt>
      <trkpt lat="45.899891" lon="6.887252">
        <time>1970-01-01T00:00:00+00:00</time>
        <ele>2333.0</ele>
      </trkpt>
      <trkpt lat="45.899891" lon="6.887252">
        <time>1970-01-01T00:00:00+00:00</time>
        <ele>2333.0</ele>
      </trkpt>
      <trkpt lat="45.9000408211454" lon="6.8871089889066575">
        <time>1970-01-01T00:00:00+00:00</time>
        <ele>2324.0</ele>
      </trkpt>
      <trkpt lat="45.900190642290816" lon="6.886965977813315">
        <time>1970-01-01T00:00:00+00:00</time>
        <ele>2319.0</ele>
      </trkpt>
      <trkpt lat="45.90034046343622" lon="6.886822966719972">
        <time>1970-01-01T00:00:00+00:00</time>
        <ele>2312.0</ele>
      </trkpt>
      <trkpt lat="45.90049028458163" lon="6.886679955626629">
        <time>1970-01-01T00:00:00+00:00</time>
        <ele>2305.0</ele>
      </trkpt>
      <trkpt lat="45.900551" lon="6.886622">
        <time>1970-01-01T00:00:00+00:00</time>
        <ele>2304.0</ele>
      </trkpt>
      <trkpt lat="45.900551" lon="6.886622">
        <time>1970-01-01T00:00:00+00:00</time>
        <ele>2304.0</ele>
      </trkpt>
      <trkpt lat="45.90068967743584" lon="6.88645740579746">
        <time>1970-01-01T00:00:00+00:00</time>
        <ele>2301.0</ele>
      </trkpt>
      <trkpt lat="45.900828354871685" lon="6.88629281159492">
        <time>1970-01-01T00:00:00+00:00</time>
        <ele>2299.0</ele>
      </trkpt>
      <trkpt lat="45.90096703230753" lon="6.886128217392381">
        <time>1970-01-01T00:00:00+00:00</time>
        <ele>2298.0</ele>
      </trkpt>
      <trkpt lat="45.90110570974337" lon="6.8859636231898405">
        <time>1970-01-01T00:00:00+00:00</time>
        <ele>2298.0</ele>
      </trkpt>
      <trkpt lat="45.901161" lon="6.885898">
        <time>1970-01-01T00:00:00+00:00</time>
        <ele>2298.0</ele>
      </trkpt>
      <trkpt lat="45.901161" lon="6.885898">
        <time>1970-01-01T00:00:00+00:00</time>
        <ele>2298.0</ele>
      </trkpt>
      <trkpt lat="45.90126080804303" lon="6.8856829801356465">
        <time>1970-01-01T00:00:00+00:00</time>
        <ele>2300.0</ele>
      </trkpt>
      <trkpt lat="45.90136061608605" lon="6.885467960271292">
        <time>1970-01-01T00:00:00+00:00</time>
        <ele>2300.0</ele>
      </trkpt>
      <trkpt lat="45.90146042412907" lon="6.8852529404069385">
        <time>1970-01-01T00:00:00+00:00</time>
        <ele>2299.0</ele>
      </trkpt>
      <trkpt lat="45.90156023217209" lon="6.885037920542585">
        <time>1970-01-01T00:00:00+00:00</time>
        <ele>2299.0</ele>
      </trkpt>
      <trkpt lat="45.901634" lon="6.884879">
        <time>1970-01-01T00:00:00+00:00</time>
        <ele>2299.0</ele>
      </trkpt>
    </trkseg>
  </trk>
</gpx>
